Observation data for Sterling City on 12/03/2020      Previous  Date       Current Mesonet Observations  Soil Data  Daily Summary Page  Observations in Plain Language
KSC1 030600Z 30009KT 01/M08 A303 RMK A01 T00131075  RH  052%=      5-min Rain = 0
KSC1 030601Z 30011KT 01/M08 A303 RMK A01 T00121075  RH  052%=      5-min Rain = 0
KSC1 030602Z 30011KT 01/M08 A303 RMK A01 T00121075  RH  052%=      5-min Rain = 0
KSC1 030603Z 30011KT 01/M07 A303 RMK A01 T00121074  RH  052%=      5-min Rain = 0
KSC1 030604Z 30012KT 01/M08 A303 RMK A01 T00121075  RH  052%=      5-min Rain = 0
KSC1 030605Z 30011KT 01/M08 A303 RMK A01 T00111075  RH  053%=      5-min Rain = 0
KSC1 030606Z 31010G15KT 01/M07 A303 RMK A01 T00121074  RH  053%=      5-min Rain = 0
KSC1 030607Z 30008KT 01/M08 A303 RMK A01 T00111075  RH  053%=      5-min Rain = 0
KSC1 030608Z 29009G14KT 01/M08 A303 RMK A01 T00101075  RH  053%=      5-min Rain = 0
KSC1 030609Z 30012KT 01/M08 A303 RMK A01 T00101075  RH  053%=      5-min Rain = 0
KSC1 030610Z 30009KT 01/M07 A303 RMK A01 T00101074  RH  053%=      5-min Rain = 0
KSC1 030611Z 30012G18KT 01/M07 A303 RMK A01 T00101074  RH  053%=      5-min Rain = 0
KSC1 030612Z 31012KT 01/M07 A303 RMK A01 T00101074  RH  054%=      5-min Rain = 0
KSC1 030613Z 30011KT 01/M07 A303 RMK A01 T00111073  RH  054%=      5-min Rain = 0
KSC1 030614Z 30012G18KT 01/M07 A303 RMK A01 T00111073  RH  053%=      5-min Rain = 0
KSC1 030615Z 30012KT 01/M07 A303 RMK A01 T00101074  RH  053%=      5-min Rain = 0
KSC1 030616Z 31012KT 01/M07 A303 RMK A01 T00111074  RH  053%=      5-min Rain = 0
KSC1 030617Z 31012G19KT 01/M07 A303 RMK A01 T00111073  RH  053%=      5-min Rain = 0
KSC1 030618Z 31012KT 01/M07 A303 RMK A01 T00111073  RH  054%=      5-min Rain = 0
KSC1 030619Z 30011KT 01/M07 A303 RMK A01 T00111073  RH  054%=      5-min Rain = 0
KSC1 030620Z 31012KT 01/M07 A303 RMK A01 T00111073  RH  053%=      5-min Rain = 0
KSC1 030621Z 31009KT 01/M07 A303 RMK A01 T00111073  RH  054%=      5-min Rain = 0
KSC1 030622Z 30010KT 01/M07 A303 RMK A01 T00101073  RH  054%=      5-min Rain = 0
KSC1 030623Z 30012KT 01/M07 A303 RMK A01 T00101073  RH  054%=      5-min Rain = 0
KSC1 030624Z 30011KT 01/M07 A303 RMK A01 T00101073  RH  054%=      5-min Rain = 0
KSC1 030625Z 30011KT 01/M07 A303 RMK A01 T00101073  RH  054%=      5-min Rain = 0
KSC1 030626Z 30010KT 01/M07 A303 RMK A01 T00101073  RH  054%=      5-min Rain = 0
KSC1 030627Z 30011KT 01/M07 A303 RMK A01 T00101073  RH  054%=      5-min Rain = 0
KSC1 030628Z 30009KT 01/M07 A303 RMK A01 T00091073  RH  054%=      5-min Rain = 0
KSC1 030629Z 30010KT 01/M07 A3031 RMK A01 T00091073  RH  054%=      5-min Rain = 0
KSC1 030630Z 30010G16KT 01/M07 A3031 RMK A01 T00091073  RH  054%=      5-min Rain = 0
KSC1 030631Z 30012KT 01/M07 A3031 RMK A01 T00081073  RH  054%=      5-min Rain = 0
KSC1 030632Z 30009G15KT 01/M07 A3031 RMK A01 T00081073  RH  055%=      5-min Rain = 0
KSC1 030633Z 30011G18KT 01/M07 A3031 RMK A01 T00091073  RH  055%=      5-min Rain = 0
KSC1 030634Z 30010KT 01/M07 A3031 RMK A01 T00081073  RH  055%=      5-min Rain = 0
KSC1 030635Z 30013G18KT 01/M07 A303 RMK A01 T00091073  RH  055%=      5-min Rain = 0
KSC1 030636Z 30009KT 01/M07 A3031 RMK A01 T00091072  RH  055%=      5-min Rain = 0
KSC1 030637Z 30010G16KT 01/M07 A3031 RMK A01 T00091073  RH  055%=      5-min Rain = 0
KSC1 030638Z 30010KT 01/M07 A3031 RMK A01 T00081073  RH  055%=      5-min Rain = 0
KSC1 030639Z 30011KT 01/M07 A3031 RMK A01 T00081073  RH  055%=      5-min Rain = 0
KSC1 030640Z 30009KT 01/M07 A303 RMK A01 T00081072  RH  055%=      5-min Rain = 0
KSC1 030641Z 30009KT 01/M07 A3031 RMK A01 T00081072  RH  055%=      5-min Rain = 0
KSC1 030642Z 29011KT 01/M07 A303 RMK A01 T00071073  RH  055%=      5-min Rain = 0
KSC1 030643Z 29010KT 01/M07 A303 RMK A01 T00071073  RH  055%=      5-min Rain = 0
KSC1 030644Z 30009KT 01/M07 A3031 RMK A01 T00071073  RH  055%=      5-min Rain = 0
KSC1 030645Z 30011KT 01/M07 A303 RMK A01 T00061073  RH  056%=      5-min Rain = 0
KSC1 030646Z 30011KT 01/M07 A303 RMK A01 T00061073  RH  056%=      5-min Rain = 0
KSC1 030647Z 30012KT 01/M07 A303 RMK A01 T00061072  RH  056%=      5-min Rain = 0
KSC1 030648Z 29010KT 01/M07 A303 RMK A01 T00061072  RH  056%=      5-min Rain = 0
KSC1 030649Z 30009G14KT 01/M07 A303 RMK A01 T00061072  RH  056%=      5-min Rain = 0
KSC1 030650Z 30010KT 01/M07 A303 RMK A01 T00061072  RH  056%=      5-min Rain = 0
KSC1 030651Z 31010KT 01/M07 A303 RMK A01 T00051072  RH  056%=      5-min Rain = 0
KSC1 030652Z 29010KT 01/M07 A303 RMK A01 T00061072  RH  056%=      5-min Rain = 0
KSC1 030653Z 30008KT 01/M07 A303 RMK A01 T00051072  RH  056%=      5-min Rain = 0
KSC1 030654Z 30012KT 01/M07 A303 RMK A01 T00051072  RH  056%=      5-min Rain = 0
KSC1 030655Z 30011KT 01/M07 A303 RMK A01 T00051072  RH  057%=      5-min Rain = 0
KSC1 030656Z 30011KT 01/M07 A303 RMK A01 T00051072  RH  056%=      5-min Rain = 0
KSC1 030657Z 30011G16KT 01/M07 A303 RMK A01 T00051072  RH  056%=      5-min Rain = 0
KSC1 030658Z 30010KT 01/M07 A303 RMK A01 T00051071  RH  056%=      5-min Rain = 0
KSC1 030659Z 30008KT 01/M07 A303 RMK A01 T00051072  RH  056%=      5-min Rain = 0
KSC1 030700Z 30009G14KT 01/M07 A303 RMK A01 T00051072  RH  056%=      5-min Rain = 0
KSC1 030701Z 30010KT 00/M07 A303 RMK A01 T00041072  RH  057%=      5-min Rain = 0
KSC1 030702Z 30009KT 00/M07 A303 RMK A01 T00041071  RH  057%=      5-min Rain = 0
KSC1 030703Z 30011KT 00/M07 A3029 RMK A01 T00041071  RH  057%=      5-min Rain = 0
KSC1 030704Z 30010KT 00/M07 A3029 RMK A01 T00041071  RH  057%=      5-min Rain = 0
KSC1 030705Z 30010KT 00/M07 A3029 RMK A01 T00041071  RH  057%=      5-min Rain = 0
KSC1 030706Z 30009KT 00/M07 A3029 RMK A01 T00031071  RH  057%=      5-min Rain = 0
KSC1 030707Z 29011KT 00/M07 A3029 RMK A01 T00031071  RH  057%=      5-min Rain = 0
KSC1 030708Z 30010G15KT 00/M07 A3029 RMK A01 T00031071  RH  058%=      5-min Rain = 0
KSC1 030709Z 30011KT 00/M07 A3029 RMK A01 T00031071  RH  058%=      5-min Rain = 0
KSC1 030710Z 30009KT 00/M07 A3029 RMK A01 T00041070  RH  058%=      5-min Rain = 0
KSC1 030711Z 30010KT 00/M07 A3029 RMK A01 T00041071  RH  057%=      5-min Rain = 0
KSC1 030712Z 30010KT 00/M07 A3029 RMK A01 T00041071  RH  058%=      5-min Rain = 0
KSC1 030713Z 30010KT 00/M07 A3029 RMK A01 T00041070  RH  058%=      5-min Rain = 0
KSC1 030714Z 29009KT 00/M07 A3029 RMK A01 T00031071  RH  058%=      5-min Rain = 0
KSC1 030715Z 30009KT 00/M07 A3029 RMK A01 T00031071  RH  058%=      5-min Rain = 0
KSC1 030716Z 30010KT 00/M07 A3029 RMK A01 T00031070  RH  058%=      5-min Rain = 0
KSC1 030717Z 29012KT 00/M07 A3029 RMK A01 T00031070  RH  058%=      5-min Rain = 0
KSC1 030718Z 29010KT 00/M07 A3029 RMK A01 T00031070  RH  058%=      5-min Rain = 0
KSC1 030719Z 30010KT 00/M07 A3029 RMK A01 T00031070  RH  058%=      5-min Rain = 0
KSC1 030720Z 30010KT 00/M07 A3029 RMK A01 T00031071  RH  058%=      5-min Rain = 0
KSC1 030721Z 30012KT 00/M07 A3029 RMK A01 T00021071  RH  058%=      5-min Rain = 0
KSC1 030722Z 29009KT 00/M07 A3029 RMK A01 T00021071  RH  058%=      5-min Rain = 0
KSC1 030723Z 30011KT 00/M07 A3029 RMK A01 T00011071  RH  058%=      5-min Rain = 0
KSC1 030724Z 30010KT 00/M07 A3029 RMK A01 T00011071  RH  058%=      5-min Rain = 0
KSC1 030725Z 30009KT 00/07 A3029 RMK A01 T00000-71  RH  059%=      5-min Rain = 0
KSC1 030726Z 30010KT 00/07 A3029 RMK A01 T00000-71  RH  059%=      5-min Rain = 0
KSC1 030727Z 30009KT 00/07 A3029 RMK A01 T00000-71  RH  059%=      5-min Rain = 0
KSC1 030728Z 30010KT 00/07 A3029 RMK A01 T00000-71  RH  059%=      5-min Rain = 0
KSC1 030729Z 29009KT 00/07 A3029 RMK A01 T00000-71  RH  059%=      5-min Rain = 0
KSC1 030730Z 30009KT 00/07 A3029 RMK A01 T00-00-71  RH  059%=      5-min Rain = 0
KSC1 030731Z 29010KT M00/M07 A3029 RMK A01 T10011071  RH  059%=      5-min Rain = 0
KSC1 030732Z 29010KT M00/M07 A3029 RMK A01 T10011071  RH  059%=      5-min Rain = 0
KSC1 030733Z 29010KT M00/M07 A3029 RMK A01 T10011071  RH  059%=      5-min Rain = 0
KSC1 030734Z 30011KT M00/M07 A3029 RMK A01 T10011071  RH  059%=      5-min Rain = 0
KSC1 030735Z 30010KT M00/M07 A3029 RMK A01 T10011071  RH  059%=      5-min Rain = 0
KSC1 030736Z 30010KT M00/M07 A3029 RMK A01 T10011071  RH  059%=      5-min Rain = 0
KSC1 030737Z 29009KT M00/M07 A3029 RMK A01 T10011071  RH  059%=      5-min Rain = 0
KSC1 030738Z 30010KT M00/M07 A3028 RMK A01 T10011071  RH  059%=      5-min Rain = 0
KSC1 030739Z 29010KT M00/M07 A3028 RMK A01 T10011072  RH  059%=      5-min Rain = 0
KSC1 030740Z 30009KT M00/M07 A3028 RMK A01 T10021071  RH  059%=      5-min Rain = 0
KSC1 030741Z 29011KT M00/M07 A3028 RMK A01 T10011071  RH  059%=      5-min Rain = 0
KSC1 030742Z 30010KT M00/M07 A3028 RMK A01 T10011071  RH  059%=      5-min Rain = 0
KSC1 030743Z 30012KT M00/M07 A3028 RMK A01 T10021071  RH  059%=      5-min Rain = 0
KSC1 030744Z 30011KT M00/M07 A3028 RMK A01 T10011071  RH  059%=      5-min Rain = 0
KSC1 030745Z 30011KT M00/M07 A3028 RMK A01 T10011071  RH  059%=      5-min Rain = 0
KSC1 030746Z 30012KT M00/M07 A3028 RMK A01 T10011071  RH  059%=      5-min Rain = 0
KSC1 030747Z 30009KT M00/M07 A3028 RMK A01 T10011071  RH  059%=      5-min Rain = 0
KSC1 030748Z 30011KT M00/M07 A3028 RMK A01 T10011071  RH  059%=      5-min Rain = 0
KSC1 030749Z 30011KT M00/M07 A3028 RMK A01 T10011071  RH  059%=      5-min Rain = 0
KSC1 030750Z 30010G16KT M00/M07 A3028 RMK A01 T10011071  RH  059%=      5-min Rain = 0
KSC1 030751Z 30011KT M00/M07 A3028 RMK A01 T10011071  RH  059%=      5-min Rain = 0
KSC1 030752Z 30012KT M00/M07 A3028 RMK A01 T10011071  RH  059%=      5-min Rain = 0
KSC1 030753Z 30011KT M00/M07 A3028 RMK A01 T10021071  RH  059%=      5-min Rain = 0
KSC1 030754Z 29012KT M00/M07 A3028 RMK A01 T10011071  RH  059%=      5-min Rain = 0
KSC1 030755Z 30010KT M00/M07 A3028 RMK A01 T10011071  RH  059%=      5-min Rain = 0
KSC1 030756Z 30010KT M00/M07 A3028 RMK A01 T10021071  RH  059%=      5-min Rain = 0
KSC1 030757Z 30013KT M00/M07 A3028 RMK A01 T10021071  RH  060%=      5-min Rain = 0
KSC1 030758Z 30009KT M00/M07 A3028 RMK A01 T10021071  RH  060%=      5-min Rain = 0
KSC1 030759Z 30012KT M00/M07 A3028 RMK A01 T10021071  RH  060%=      5-min Rain = 0
KSC1 030800Z 30010KT M00/M07 A3028 RMK A01 T10021071  RH  060%=      5-min Rain = 0
KSC1 030801Z 30010KT M00/M07 A3028 RMK A01 T10021071  RH  060%=      5-min Rain = 0
KSC1 030802Z 30010KT M00/M07 A3028 RMK A01 T10021071  RH  060%=      5-min Rain = 0
KSC1 030803Z 30010G15KT M00/M07 A3028 RMK A01 T10021071  RH  060%=      5-min Rain = 0
KSC1 030804Z 30010KT M00/M07 A3028 RMK A01 T10021071  RH  060%=      5-min Rain = 0
KSC1 030805Z 30011G16KT M00/M07 A3028 RMK A01 T10021071  RH  060%=      5-min Rain = 0
KSC1 030806Z 30011KT M00/M07 A3028 RMK A01 T10021071  RH  060%=      5-min Rain = 0
KSC1 030807Z 30013KT M00/M07 A3028 RMK A01 T10031071  RH  060%=      5-min Rain = 0
KSC1 030808Z 30011G16KT M00/M07 A3028 RMK A01 T10031071  RH  060%=      5-min Rain = 0
KSC1 030809Z 30012KT M00/M07 A3028 RMK A01 T10021071  RH  060%=      5-min Rain = 0
KSC1 030810Z 30012KT M00/M07 A3028 RMK A01 T10021070  RH  060%=      5-min Rain = 0
KSC1 030811Z 30013KT M00/M07 A3028 RMK A01 T10021070  RH  060%=      5-min Rain = 0
KSC1 030812Z 30009G14KT M00/M07 A3027 RMK A01 T10021070  RH  060%=      5-min Rain = 0
KSC1 030813Z 30012KT M00/M07 A3027 RMK A01 T10031071  RH  060%=      5-min Rain = 0
KSC1 030814Z 30013KT M00/M07 A3027 RMK A01 T10031071  RH  060%=      5-min Rain = 0
KSC1 030815Z 30013G18KT M00/M07 A3027 RMK A01 T10031071  RH  060%=      5-min Rain = 0
KSC1 030816Z 30013KT M00/M07 A3027 RMK A01 T10031071  RH  060%=      5-min Rain = 0
KSC1 030817Z 30013KT M00/M07 A3027 RMK A01 T10031070  RH  060%=      5-min Rain = 0
KSC1 030818Z 30011KT M00/M07 A3028 RMK A01 T10031070  RH  060%=      5-min Rain = 0
KSC1 030819Z 30011KT M00/M07 A3028 RMK A01 T10031070  RH  060%=      5-min Rain = 0
KSC1 030820Z 31010G16KT M00/M07 A3028 RMK A01 T10041071  RH  060%=      5-min Rain = 0
KSC1 030821Z 30011KT M00/M07 A3028 RMK A01 T10041070  RH  061%=      5-min Rain = 0
KSC1 030822Z 30013KT M00/M07 A3028 RMK A01 T10041070  RH  061%=      5-min Rain = 0
KSC1 030823Z 30013G18KT M00/M07 A3028 RMK A01 T10041070  RH  061%=      5-min Rain = 0
KSC1 030824Z 30013KT M00/M07 A3028 RMK A01 T10031070  RH  061%=      5-min Rain = 0
KSC1 030825Z 30013G18KT M00/M07 A3027 RMK A01 T10031070  RH  061%=      5-min Rain = 0
KSC1 030826Z 30010KT M00/M07 A3027 RMK A01 T10041070  RH  061%=      5-min Rain = 0
KSC1 030827Z 30013KT M00/M07 A3027 RMK A01 T10041070  RH  061%=      5-min Rain = 0
KSC1 030828Z 30010KT M00/M07 A3027 RMK A01 T10041071  RH  061%=      5-min Rain = 0
KSC1 030829Z 30013KT M00/M07 A3027 RMK A01 T10041070  RH  061%=      5-min Rain = 0
KSC1 030830Z 30012G18KT M00/M07 A3027 RMK A01 T10041070  RH  061%=      5-min Rain = 0
KSC1 030831Z 30010G16KT M00/M07 A3027 RMK A01 T10041071  RH  061%=      5-min Rain = 0
KSC1 030832Z 30013KT M01/M07 A3027 RMK A01 T10051071  RH  061%=      5-min Rain = 0
KSC1 030833Z 30010KT M01/M07 A3027 RMK A01 T10051071  RH  061%=      5-min Rain = 0
KSC1 030834Z 30010G15KT M01/M07 A3027 RMK A01 T10051071  RH  061%=      5-min Rain = 0
KSC1 030835Z 30010KT M01/M07 A3027 RMK A01 T10051071  RH  061%=      5-min Rain = 0
KSC1 030836Z 30013KT M01/M07 A3027 RMK A01 T10061071  RH  061%=      5-min Rain = 0
KSC1 030837Z 30012KT M01/M07 A3027 RMK A01 T10061071  RH  062%=      5-min Rain = 0
KSC1 030838Z 30010KT M01/M07 A3027 RMK A01 T10061071  RH  062%=      5-min Rain = 0
KSC1 030839Z 30013KT M01/M07 A3027 RMK A01 T10061071  RH  061%=      5-min Rain = 0
KSC1 030840Z 31012G17KT M01/M07 A3027 RMK A01 T10061071  RH  062%=      5-min Rain = 0
KSC1 030841Z 30010G15KT M01/M07 A3027 RMK A01 T10061071  RH  062%=      5-min Rain = 0
KSC1 030842Z 30011G16KT M01/M07 A3027 RMK A01 T10061070  RH  062%=      5-min Rain = 0
KSC1 030843Z 29010KT M01/M07 A3027 RMK A01 T10061070  RH  062%=      5-min Rain = 0
KSC1 030844Z 30012KT M01/M07 A3027 RMK A01 T10061070  RH  062%=      5-min Rain = 0
KSC1 030845Z 30013KT M01/M07 A3027 RMK A01 T10061070  RH  062%=      5-min Rain = 0
KSC1 030846Z 30011KT M01/M07 A3027 RMK A01 T10061071  RH  062%=      5-min Rain = 0
KSC1 030847Z 30011G16KT M01/M07 A3027 RMK A01 T10061070  RH  062%=      5-min Rain = 0
KSC1 030848Z 30010KT M01/M07 A3027 RMK A01 T10061070  RH  062%=      5-min Rain = 0
KSC1 030849Z 30011KT M01/M07 A3027 RMK A01 T10061071  RH  062%=      5-min Rain = 0
KSC1 030850Z 30010KT M01/M07 A3027 RMK A01 T10061071  RH  062%=      5-min Rain = 0
KSC1 030851Z 29010G15KT M01/M07 A3027 RMK A01 T10071071  RH  062%=      5-min Rain = 0
KSC1 030852Z 30011KT M01/M07 A3027 RMK A01 T10071071  RH  062%=      5-min Rain = 0
KSC1 030853Z 30011KT M01/M07 A3027 RMK A01 T10071070  RH  062%=      5-min Rain = 0
KSC1 030854Z 30010G15KT M01/M07 A3027 RMK A01 T10071071  RH  062%=      5-min Rain = 0
KSC1 030855Z 30013G18KT M01/M07 A3027 RMK A01 T10071071  RH  062%=      5-min Rain = 0
KSC1 030856Z 30011KT M01/M07 A3027 RMK A01 T10071071  RH  062%=      5-min Rain = 0
KSC1 030857Z 30011KT M01/M07 A3027 RMK A01 T10071071  RH  062%=      5-min Rain = 0
KSC1 030858Z 30010KT M01/M07 A3027 RMK A01 T10071071  RH  062%=      5-min Rain = 0
KSC1 030859Z 30010KT M01/M07 A3028 RMK A01 T10071071  RH  062%=      5-min Rain = 0
KSC1 030900Z 29010KT M01/M07 A3028 RMK A01 T10071071  RH  062%=      5-min Rain = 0
KSC1 030901Z 29010KT M01/M07 A3028 RMK A01 T10071071  RH  062%=      5-min Rain = 0
KSC1 030902Z 30009KT M01/M07 A3028 RMK A01 T10071071  RH  062%=      5-min Rain = 0
KSC1 030903Z 29008G13KT M01/M07 A3028 RMK A01 T10071071  RH  062%=      5-min Rain = 0
KSC1 030904Z 30009KT M01/M07 A3028 RMK A01 T10081071  RH  062%=      5-min Rain = 0
KSC1 030905Z 29008KT M01/M07 A3028 RMK A01 T10081071  RH  062%=      5-min Rain = 0
KSC1 030906Z 29009KT M01/M07 A3028 RMK A01 T10081072  RH  062%=      5-min Rain = 0
KSC1 030907Z 29009KT M01/M07 A3028 RMK A01 T10081072  RH  062%=      5-min Rain = 0
KSC1 030908Z 29010KT M01/M07 A3028 RMK A01 T10081072  RH  062%=      5-min Rain = 0
KSC1 030909Z 29011KT M01/M07 A3028 RMK A01 T10091072  RH  062%=      5-min Rain = 0
KSC1 030910Z 29008KT M01/M07 A3028 RMK A01 T10081071  RH  062%=      5-min Rain = 0
KSC1 030911Z 29007KT M01/M07 A3028 RMK A01 T10081072  RH  062%=      5-min Rain = 0
KSC1 030912Z 29009KT M01/M07 A3028 RMK A01 T10091072  RH  062%=      5-min Rain = 0
KSC1 030913Z 29008KT M01/M07 A3028 RMK A01 T10091072  RH  062%=      5-min Rain = 0
KSC1 030914Z 29008KT M01/M07 A3028 RMK A01 T10091071  RH  063%=      5-min Rain = 0
KSC1 030915Z 29008KT M01/M07 A3028 RMK A01 T10091071  RH  063%=      5-min Rain = 0
KSC1 030916Z 29008KT M01/M07 A3028 RMK A01 T10091071  RH  063%=      5-min Rain = 0
KSC1 030917Z 29007KT M01/M07 A3028 RMK A01 T10091071  RH  063%=      5-min Rain = 0
KSC1 030918Z 29008KT M01/M07 A3029 RMK A01 T10091071  RH  063%=      5-min Rain = 0
KSC1 030919Z 29008KT M01/M07 A3029 RMK A01 T10101072  RH  063%=      5-min Rain = 0
KSC1 030920Z 29008KT M01/M07 A3029 RMK A01 T10101071  RH  063%=      5-min Rain = 0
KSC1 030921Z 29007KT M01/M07 A3029 RMK A01 T10091071  RH  063%=      5-min Rain = 0
KSC1 030922Z 29008KT M01/M07 A3029 RMK A01 T10091071  RH  063%=      5-min Rain = 0
KSC1 030923Z 29009KT M01/M07 A3029 RMK A01 T10091071  RH  063%=      5-min Rain = 0
KSC1 030924Z 28007KT M01/M07 A3029 RMK A01 T10091071  RH  063%=      5-min Rain = 0
KSC1 030925Z 28008KT M01/M07 A3029 RMK A01 T10091071  RH  063%=      5-min Rain = 0
KSC1 030926Z 29008KT M01/M07 A3029 RMK A01 T10091071  RH  063%=      5-min Rain = 0
KSC1 030927Z 29008KT M01/M07 A3029 RMK A01 T10101071  RH  063%=      5-min Rain = 0
KSC1 030928Z 29009KT M01/M07 A3029 RMK A01 T10101071  RH  063%=      5-min Rain = 0
KSC1 030929Z 29008KT M01/M07 A3029 RMK A01 T10091071  RH  063%=      5-min Rain = 0
KSC1 030930Z 29007KT M01/M07 A3029 RMK A01 T10091070  RH  063%=      5-min Rain = 0
KSC1 030931Z 29008KT M01/M07 A3029 RMK A01 T10091070  RH  063%=      5-min Rain = 0
KSC1 030932Z 29008KT M01/M07 A3029 RMK A01 T10101071  RH  063%=      5-min Rain = 0
KSC1 030933Z 29008KT M01/M07 A3029 RMK A01 T10101071  RH  063%=      5-min Rain = 0
KSC1 030934Z 29008KT M01/M07 A3029 RMK A01 T10101070  RH  064%=      5-min Rain = 0
KSC1 030935Z 28007KT M01/M07 A3029 RMK A01 T10101070  RH  064%=      5-min Rain = 0
KSC1 030936Z 28007KT M01/M07 A3029 RMK A01 T10101070  RH  064%=      5-min Rain = 0
KSC1 030937Z 29007KT M01/M07 A3029 RMK A01 T10101070  RH  064%=      5-min Rain = 0
KSC1 030938Z 28007KT M01/M07 A3029 RMK A01 T10111071  RH  064%=      5-min Rain = 0
KSC1 030939Z 28008KT M01/M07 A3029 RMK A01 T10111071  RH  064%=      5-min Rain = 0
KSC1 030940Z 28009KT M01/M07 A3029 RMK A01 T10111071  RH  064%=      5-min Rain = 0
KSC1 030941Z 28008KT M01/M07 A3029 RMK A01 T10121070  RH  064%=      5-min Rain = 0
KSC1 030942Z 28008KT M01/M07 A3029 RMK A01 T10111070  RH  064%=      5-min Rain = 0
KSC1 030943Z 28008KT M01/M07 A3029 RMK A01 T10111070  RH  064%=      5-min Rain = 0
KSC1 030944Z 28007KT M01/M07 A3029 RMK A01 T10111070  RH  064%=      5-min Rain = 0
KSC1 030945Z 28007KT M01/M07 A3029 RMK A01 T10111070  RH  064%=      5-min Rain = 0
KSC1 030946Z 28007KT M01/M07 A3029 RMK A01 T10111070  RH  064%=      5-min Rain = 0
KSC1 030947Z 28008KT M01/M07 A3029 RMK A01 T10121071  RH  064%=      5-min Rain = 0
KSC1 030948Z 28007KT M01/M07 A3029 RMK A01 T10121070  RH  064%=      5-min Rain = 0
KSC1 030949Z 28007KT M01/M07 A3029 RMK A01 T10121070  RH  065%=      5-min Rain = 0
KSC1 030950Z 29007KT M01/M07 A3029 RMK A01 T10121070  RH  065%=      5-min Rain = 0
KSC1 030951Z 29006KT M01/M07 A3029 RMK A01 T10121070  RH  065%=      5-min Rain = 0
KSC1 030952Z 29007KT M01/M07 A3029 RMK A01 T10121070  RH  065%=      5-min Rain = 0
KSC1 030953Z 28006KT M01/M07 A3028 RMK A01 T10121070  RH  065%=      5-min Rain = 0
KSC1 030954Z 29006KT M01/M07 A3028 RMK A01 T10131070  RH  065%=      5-min Rain = 0
KSC1 030955Z 29007KT M01/M07 A3028 RMK A01 T10131070  RH  065%=      5-min Rain = 0
KSC1 030956Z 29007KT M01/M07 A3028 RMK A01 T10131070  RH  065%=      5-min Rain = 0
KSC1 030957Z 29008KT M01/M07 A3028 RMK A01 T10131070  RH  065%=      5-min Rain = 0
KSC1 030958Z 28007KT M01/M07 A3028 RMK A01 T10131070  RH  065%=      5-min Rain = 0
KSC1 030959Z 29006KT M01/M07 A3028 RMK A01 T10131070  RH  065%=      5-min Rain = 0
KSC1 031000Z 29007KT M01/M07 A3028 RMK A01 T10131070  RH  065%=      5-min Rain = 0
KSC1 031001Z 29007KT M01/M07 A3028 RMK A01 T10131069  RH  065%=      5-min Rain = 0
KSC1 031002Z 29007KT M01/M07 A3028 RMK A01 T10131069  RH  065%=      5-min Rain = 0
KSC1 031003Z 29007KT M01/M07 A3028 RMK A01 T10131069  RH  065%=      5-min Rain = 0
KSC1 031004Z 29007KT M01/M07 A3028 RMK A01 T10121069  RH  065%=      5-min Rain = 0
KSC1 031005Z 29007KT M01/M07 A3028 RMK A01 T10131069  RH  066%=      5-min Rain = 0
KSC1 031006Z 28006KT M01/M07 A3028 RMK A01 T10131069  RH  066%=      5-min Rain = 0
KSC1 031007Z 28008KT M01/M07 A3028 RMK A01 T10131069  RH  066%=      5-min Rain = 0
KSC1 031008Z 28007KT M01/M07 A3028 RMK A01 T10141070  RH  066%=      5-min Rain = 0
KSC1 031009Z 28007KT M01/M07 A3028 RMK A01 T10141070  RH  066%=      5-min Rain = 0
KSC1 031010Z 28006KT M02/M07 A3028 RMK A01 T10151070  RH  066%=      5-min Rain = 0
KSC1 031011Z 28008KT M02/M07 A3028 RMK A01 T10151071  RH  066%=      5-min Rain = 0
KSC1 031012Z 27007KT M02/M07 A3028 RMK A01 T10151070  RH  066%=      5-min Rain = 0
KSC1 031013Z 28006KT M02/M07 A3028 RMK A01 T10151070  RH  066%=      5-min Rain = 0
KSC1 031014Z 27006KT M02/M07 A3028 RMK A01 T10161070  RH  066%=      5-min Rain = 0
KSC1 031015Z 27006KT M02/M07 A3028 RMK A01 T10161070  RH  066%=      5-min Rain = 0
KSC1 031016Z 27007KT M02/M07 A3028 RMK A01 T10161070  RH  066%=      5-min Rain = 0
KSC1 031017Z 27008KT M02/M07 A3028 RMK A01 T10161070  RH  067%=      5-min Rain = 0
KSC1 031018Z 27007KT M02/M07 A3028 RMK A01 T10151069  RH  067%=      5-min Rain = 0
KSC1 031019Z 27007KT M02/M07 A3028 RMK A01 T10151069  RH  066%=      5-min Rain = 0
KSC1 031020Z 27007KT M02/M07 A3028 RMK A01 T10151069  RH  066%=      5-min Rain = 0
KSC1 031021Z 27007KT M01/M07 A3028 RMK A01 T10141069  RH  066%=      5-min Rain = 0
KSC1 031022Z 27007KT M01/M07 A3028 RMK A01 T10141069  RH  066%=      5-min Rain = 0
KSC1 031023Z 27007KT M01/M07 A3028 RMK A01 T10141069  RH  066%=      5-min Rain = 0
KSC1 031024Z 27007KT M01/M07 A3028 RMK A01 T10141069  RH  066%=      5-min Rain = 0
KSC1 031025Z 27007KT M01/M07 A3028 RMK A01 T10141069  RH  066%=      5-min Rain = 0
KSC1 031026Z 27007KT M01/M07 A3029 RMK A01 T10131068  RH  066%=      5-min Rain = 0
KSC1 031027Z 27005KT M01/M07 A3029 RMK A01 T10131068  RH  066%=      5-min Rain = 0
KSC1 031028Z 27005KT M01/M07 A3029 RMK A01 T10121068  RH  066%=      5-min Rain = 0
KSC1 031029Z 27006KT M01/M07 A3029 RMK A01 T10121067  RH  066%=      5-min Rain = 0
KSC1 031030Z 27006KT M01/M07 A3029 RMK A01 T10111067  RH  066%=      5-min Rain = 0
KSC1 031031Z 27007KT M01/M07 A3029 RMK A01 T10111067  RH  066%=      5-min Rain = 0
KSC1 031032Z 27007KT M01/M07 A3028 RMK A01 T10101066  RH  066%=      5-min Rain = 0
KSC1 031033Z 27006KT M01/M07 A3028 RMK A01 T10101066  RH  066%=      5-min Rain = 0
KSC1 031034Z 27007KT M01/M07 A3028 RMK A01 T10091066  RH  065%=      5-min Rain = 0
KSC1 031035Z 28007KT M01/M07 A3028 RMK A01 T10091066  RH  065%=      5-min Rain = 0
KSC1 031036Z 28006KT M01/M07 A3028 RMK A01 T10091066  RH  065%=      5-min Rain = 0
KSC1 031037Z 28006KT M01/M07 A3028 RMK A01 T10091066  RH  065%=      5-min Rain = 0
KSC1 031038Z 27007KT M01/M07 A3028 RMK A01 T10081065  RH  065%=      5-min Rain = 0
KSC1 031039Z 28007KT M01/M07 A3028 RMK A01 T10081066  RH  065%=      5-min Rain = 0
KSC1 031040Z 28007KT M01/M07 A3028 RMK A01 T10081066  RH  065%=      5-min Rain = 0
KSC1 031041Z 27007KT M01/M07 A3028 RMK A01 T10081066  RH  065%=      5-min Rain = 0
KSC1 031042Z 27006KT M01/M07 A3028 RMK A01 T10071066  RH  065%=      5-min Rain = 0
KSC1 031043Z 27007KT M01/M07 A3028 RMK A01 T10071065  RH  065%=      5-min Rain = 0
KSC1 031044Z 27006KT M01/M07 A3028 RMK A01 T10071065  RH  065%=      5-min Rain = 0
KSC1 031045Z 27006KT M01/M07 A3028 RMK A01 T10061065  RH  065%=      5-min Rain = 0
KSC1 031046Z 27006KT M01/M07 A3028 RMK A01 T10061065  RH  064%=      5-min Rain = 0
KSC1 031047Z 27007KT M01/M06 A3028 RMK A01 T10061064  RH  064%=      5-min Rain = 0
KSC1 031048Z 27006KT M01/M07 A3028 RMK A01 T10051065  RH  064%=      5-min Rain = 0
KSC1 031049Z 27006KT M01/M06 A3028 RMK A01 T10051064  RH  064%=      5-min Rain = 0
KSC1 031050Z 27006KT M01/M07 A3028 RMK A01 T10051065  RH  064%=      5-min Rain = 0
KSC1 031051Z 27007KT M01/M07 A3028 RMK A01 T10051065  RH  064%=      5-min Rain = 0
KSC1 031052Z 27008KT M00/M06 A3027 RMK A01 T10041064  RH  064%=      5-min Rain = 0
KSC1 031053Z 27007KT M00/M06 A3027 RMK A01 T10041064  RH  064%=      5-min Rain = 0
KSC1 031054Z 27007KT M00/M06 A3027 RMK A01 T10041064  RH  064%=      5-min Rain = 0
KSC1 031055Z 27007KT M00/M06 A3027 RMK A01 T10041064  RH  064%=      5-min Rain = 0
KSC1 031056Z 27007KT M00/M06 A3027 RMK A01 T10031064  RH  064%=      5-min Rain = 0
KSC1 031057Z 27007KT M00/M06 A3027 RMK A01 T10031064  RH  064%=      5-min Rain = 0
KSC1 031058Z 27008KT M00/M06 A3027 RMK A01 T10031064  RH  064%=      5-min Rain = 0
KSC1 031059Z 27008KT M00/M06 A3028 RMK A01 T10031063  RH  064%=      5-min Rain = 0
KSC1 031100Z 27006KT M00/M06 A3028 RMK A01 T10021063  RH  063%=      5-min Rain = 0
KSC1 031101Z 27006KT M00/M06 A3028 RMK A01 T10021063  RH  063%=      5-min Rain = 0
KSC1 031102Z 27006KT M00/M06 A3028 RMK A01 T10021064  RH  063%=      5-min Rain = 0
KSC1 031103Z 27007KT M00/M06 A3028 RMK A01 T10021063  RH  063%=      5-min Rain = 0
KSC1 031104Z 27007KT M00/M06 A3028 RMK A01 T10021063  RH  063%=      5-min Rain = 0
KSC1 031105Z 27006KT M00/M06 A3028 RMK A01 T10011063  RH  063%=      5-min Rain = 0
KSC1 031106Z 27007KT M00/M06 A3028 RMK A01 T10011063  RH  063%=      5-min Rain = 0
KSC1 031107Z 27007KT M00/M06 A3028 RMK A01 T10011063  RH  063%=      5-min Rain = 0
KSC1 031108Z 28008KT M00/M06 A3027 RMK A01 T10011063  RH  063%=      5-min Rain = 0
KSC1 031109Z 28007KT 00/06 A3027 RMK A01 T00-00-62  RH  063%=      5-min Rain = 0
KSC1 031110Z 28009KT M00/M06 A3028 RMK A01 T10011063  RH  063%=      5-min Rain = 0
KSC1 031111Z 28007KT 00/06 A3028 RMK A01 T00000-62  RH  063%=      5-min Rain = 0
KSC1 031112Z 28007KT 00/06 A3027 RMK A01 T00000-62  RH  063%=      5-min Rain = 0
KSC1 031113Z 28009KT 00/06 A3028 RMK A01 T00000-62  RH  063%=      5-min Rain = 0
KSC1 031114Z 28007KT 00/06 A3028 RMK A01 T00000-62  RH  063%=      5-min Rain = 0
KSC1 031115Z 28008KT 00/M06 A3027 RMK A01 T00011062  RH  063%=      5-min Rain = 0
KSC1 031116Z 28008KT 00/M06 A3027 RMK A01 T00011062  RH  063%=      5-min Rain = 0
KSC1 031117Z 28006KT 00/M06 A3027 RMK A01 T00011062  RH  063%=      5-min Rain = 0
KSC1 031118Z 28008KT 00/M06 A3027 RMK A01 T00021061  RH  063%=      5-min Rain = 0
KSC1 031119Z 28006KT 00/M06 A3028 RMK A01 T00011062  RH  063%=      5-min Rain = 0
KSC1 031120Z 28007KT 00/M06 A3027 RMK A01 T00021061  RH  063%=      5-min Rain = 0
KSC1 031121Z 28007KT 00/M06 A3027 RMK A01 T00021061  RH  063%=      5-min Rain = 0
KSC1 031122Z 28007KT 00/M06 A3027 RMK A01 T00021061  RH  063%=      5-min Rain = 0
KSC1 031123Z 28008KT 00/M06 A3028 RMK A01 T00021061  RH  063%=      5-min Rain = 0
KSC1 031124Z 28009KT 00/M06 A3028 RMK A01 T00031060  RH  063%=      5-min Rain = 0
KSC1 031125Z 28008KT 00/M06 A3027 RMK A01 T00031060  RH  063%=      5-min Rain = 0
KSC1 031126Z 28007KT 00/M06 A3027 RMK A01 T00031060  RH  063%=      5-min Rain = 0
KSC1 031127Z 28008KT 00/M06 A3027 RMK A01 T00031060  RH  062%=      5-min Rain = 0
KSC1 031128Z 28007KT 00/M06 A3028 RMK A01 T00041059  RH  063%=      5-min Rain = 0
KSC1 031129Z 28007KT 00/M06 A3027 RMK A01 T00041060  RH  062%=      5-min Rain = 0
KSC1 031130Z 28007KT 00/M06 A3028 RMK A01 T00041060  RH  062%=      5-min Rain = 0
KSC1 031131Z 28006KT 00/M06 A3028 RMK A01 T00041060  RH  062%=      5-min Rain = 0
KSC1 031132Z 28006KT 00/M06 A3028 RMK A01 T00041060  RH  062%=      5-min Rain = 0
KSC1 031133Z 28006KT 00/M06 A3028 RMK A01 T00041060  RH  062%=      5-min Rain = 0
KSC1 031134Z 28007KT 00/M06 A3028 RMK A01 T00041060  RH  062%=      5-min Rain = 0
KSC1 031135Z 28008KT 00/M06 A3028 RMK A01 T00041059  RH  062%=      5-min Rain = 0
KSC1 031136Z 28007KT 00/M06 A3028 RMK A01 T00041059  RH  062%=      5-min Rain = 0
KSC1 031137Z 29008KT 00/M06 A3028 RMK A01 T00041059  RH  062%=      5-min Rain = 0
KSC1 031138Z 28007KT 00/M06 A3028 RMK A01 T00041059  RH  062%=      5-min Rain = 0
KSC1 031139Z 28007KT 01/M06 A3028 RMK A01 T00051059  RH  062%=      5-min Rain = 0
KSC1 031140Z 29007KT 01/M06 A3028 RMK A01 T00051059  RH  062%=      5-min Rain = 0
KSC1 031141Z 28007KT 01/M06 A3028 RMK A01 T00051058  RH  062%=      5-min Rain = 0
KSC1 031142Z 28007KT 01/M06 A3028 RMK A01 T00051059  RH  062%=      5-min Rain = 0
KSC1 031143Z 28006KT 01/M06 A3028 RMK A01 T00061058  RH  062%=      5-min Rain = 0
KSC1 031144Z 29008KT 01/M06 A3028 RMK A01 T00061058  RH  062%=      5-min Rain = 0
KSC1 031145Z 28007KT 01/M06 A3028 RMK A01 T00061058  RH  062%=      5-min Rain = 0
KSC1 031146Z 29008KT 01/M06 A3028 RMK A01 T00071057  RH  062%=      5-min Rain = 0
KSC1 031147Z 29007KT 01/M06 A3028 RMK A01 T00071057  RH  062%=      5-min Rain = 0
KSC1 031148Z 29007KT 01/M06 A3027 RMK A01 T00081057  RH  062%=      5-min Rain = 0
KSC1 031149Z 29006KT 01/M06 A3028 RMK A01 T00081057  RH  062%=      5-min Rain = 0
KSC1 031150Z 29006KT 01/M06 A3028 RMK A01 T00081056  RH  062%=      5-min Rain = 0
KSC1 031151Z 29005KT 01/M06 A3028 RMK A01 T00091056  RH  062%=      5-min Rain = 0
KSC1 031152Z 29005KT 01/M06 A3028 RMK A01 T00091056  RH  062%=      5-min Rain = 0
KSC1 031153Z 29006KT 01/M06 A3028 RMK A01 T00091056  RH  062%=      5-min Rain = 0
KSC1 031154Z 29006KT 01/M06 A3027 RMK A01 T00091056  RH  062%=      5-min Rain = 0
KSC1 031155Z 28006KT 01/M06 A3027 RMK A01 T00091056  RH  062%=      5-min Rain = 0
KSC1 031156Z 28005KT 01/M06 A3027 RMK A01 T00101055  RH  062%=      5-min Rain = 0
KSC1 031157Z 29006KT 01/M06 A3027 RMK A01 T00101055  RH  062%=      5-min Rain = 0
KSC1 031158Z 29006KT 01/M06 A3027 RMK A01 T00101056  RH  062%=      5-min Rain = 0
KSC1 031159Z 29006KT 01/M06 A3027 RMK A01 T00101055  RH  062%=      5-min Rain = 0
KSC1 031200Z 28006KT 01/M06 A3027 RMK A01 T00101055  RH  062%=      5-min Rain = 0
KSC1 031201Z 29006KT 01/M06 A3028 RMK A01 T00101055  RH  062%=      5-min Rain = 0
KSC1 031202Z 29006KT 01/M06 A3028 RMK A01 T00101055  RH  062%=      5-min Rain = 0
KSC1 031203Z 28006KT 01/M06 A3028 RMK A01 T00111055  RH  062%=      5-min Rain = 0
KSC1 031204Z 28007KT 01/M06 A3028 RMK A01 T00111055  RH  062%=      5-min Rain = 0
KSC1 031205Z 29008KT 01/M06 A3028 RMK A01 T00111055  RH  061%=      5-min Rain = 0
KSC1 031206Z 29008KT 01/M06 A3028 RMK A01 T00111055  RH  061%=      5-min Rain = 0
KSC1 031207Z 29009KT 01/M05 A3028 RMK A01 T00121054  RH  061%=      5-min Rain = 0
KSC1 031208Z 29006KT 01/M05 A3028 RMK A01 T00121054  RH  061%=      5-min Rain = 0
KSC1 031209Z 29005KT 01/M05 A3028 RMK A01 T00131054  RH  061%=      5-min Rain = 0
KSC1 031210Z 28006KT 01/M05 A3028 RMK A01 T00131054  RH  061%=      5-min Rain = 0
KSC1 031211Z 28007KT 01/M05 A3028 RMK A01 T00131054  RH  061%=      5-min Rain = 0
KSC1 031212Z 28006KT 01/M05 A3028 RMK A01 T00131054  RH  061%=      5-min Rain = 0
KSC1 031213Z 29007KT 01/M05 A3028 RMK A01 T00131054  RH  061%=      5-min Rain = 0
KSC1 031214Z 28006KT 01/M05 A3028 RMK A01 T00131054  RH  061%=      5-min Rain = 0
KSC1 031215Z 28006KT 01/M05 A3028 RMK A01 T00131054  RH  061%=      5-min Rain = 0
KSC1 031216Z 28006KT 01/M05 A3028 RMK A01 T00131054  RH  061%=      5-min Rain = 0
KSC1 031217Z 29006KT 01/M06 A3028 RMK A01 T00131055  RH  061%=      5-min Rain = 0
KSC1 031218Z 29006KT 01/M05 A3028 RMK A01 T00131054  RH  061%=      5-min Rain = 0
KSC1 031219Z 28006KT 01/M05 A3028 RMK A01 T00131054  RH  061%=      5-min Rain = 0
KSC1 031220Z 28006KT 01/M05 A3028 RMK A01 T00121054  RH  061%=      5-min Rain = 0
KSC1 031221Z 28008KT 01/M06 A3028 RMK A01 T00121055  RH  061%=      5-min Rain = 0
KSC1 031222Z 29007KT 01/M06 A3028 RMK A01 T00131055  RH  061%=      5-min Rain = 0
KSC1 031223Z 29006KT 01/M06 A3028 RMK A01 T00121055  RH  061%=      5-min Rain = 0
KSC1 031224Z 28007KT 01/M05 A3028 RMK A01 T00131054  RH  061%=      5-min Rain = 0
KSC1 031225Z 28008KT 01/M05 A3028 RMK A01 T00131054  RH  061%=      5-min Rain = 0
KSC1 031226Z 29006KT 01/M05 A3028 RMK A01 T00131054  RH  061%=      5-min Rain = 0
KSC1 031227Z 30009KT 01/M05 A3028 RMK A01 T00131054  RH  061%=      5-min Rain = 0
KSC1 031228Z 29006KT 01/M05 A3028 RMK A01 T00141053  RH  061%=      5-min Rain = 0
KSC1 031229Z 29005KT 01/M05 A3028 RMK A01 T00141053  RH  061%=      5-min Rain = 0
KSC1 031230Z 28005KT 01/M05 A3028 RMK A01 T00141053  RH  061%=      5-min Rain = 0
KSC1 031231Z 29005KT 02/M05 A3028 RMK A01 T00151053  RH  061%=      5-min Rain = 0
KSC1 031232Z 29006KT 02/M05 A3028 RMK A01 T00151053  RH  061%=      5-min Rain = 0
KSC1 031233Z 29005KT 02/M05 A3028 RMK A01 T00151053  RH  061%=      5-min Rain = 0
KSC1 031234Z 29005KT 02/M05 A3028 RMK A01 T00151053  RH  061%=      5-min Rain = 0
KSC1 031235Z 29006KT 02/M05 A3028 RMK A01 T00151053  RH  061%=      5-min Rain = 0
KSC1 031236Z 29005KT 02/M05 A3028 RMK A01 T00151053  RH  061%=      5-min Rain = 0
KSC1 031237Z 29007KT 02/M05 A3028 RMK A01 T00151053  RH  061%=      5-min Rain = 0
KSC1 031238Z 29005KT 02/M05 A3028 RMK A01 T00151053  RH  061%=      5-min Rain = 0
KSC1 031239Z 29004KT 02/M05 A3028 RMK A01 T00151053  RH  061%=      5-min Rain = 0
KSC1 031240Z 29005KT 02/M05 A3028 RMK A01 T00151052  RH  061%=      5-min Rain = 0
KSC1 031241Z 29005KT 02/M05 A3028 RMK A01 T00151053  RH  061%=      5-min Rain = 0
KSC1 031242Z 29006G11KT 02/M05 A3028 RMK A01 T00151053  RH  061%=      5-min Rain = 0
KSC1 031243Z 29007KT 02/M05 A3028 RMK A01 T00151052  RH  061%=      5-min Rain = 0
KSC1 031244Z 30007KT 02/M05 A3028 RMK A01 T00161051  RH  061%=      5-min Rain = 0
KSC1 031245Z 30006KT 02/M05 A3028 RMK A01 T00171051  RH  061%=      5-min Rain = 0
KSC1 031246Z 29007KT 02/M05 A3028 RMK A01 T00171051  RH  061%=      5-min Rain = 0
KSC1 031247Z 30007KT 02/M05 A3028 RMK A01 T00171050  RH  061%=      5-min Rain = 0
KSC1 031248Z 30007KT 02/M05 A3028 RMK A01 T00181050  RH  061%=      5-min Rain = 0
KSC1 031249Z 30009KT 02/M05 A3028 RMK A01 T00181050  RH  061%=      5-min Rain = 0
KSC1 031250Z 30008KT 02/M05 A3028 RMK A01 T00191049  RH  061%=      5-min Rain = 0
KSC1 031251Z 31008KT 02/M05 A3028 RMK A01 T00191049  RH  061%=      5-min Rain = 0
KSC1 031252Z 30006KT 02/M05 A3028 RMK A01 T00191049  RH  060%=      5-min Rain = 0
KSC1 031253Z 30008KT 02/M05 A3028 RMK A01 T00201048  RH  060%=      5-min Rain = 0
KSC1 031254Z 31007KT 02/M05 A3028 RMK A01 T00201049  RH  060%=      5-min Rain = 0
KSC1 031255Z 31007KT 02/M05 A3028 RMK A01 T00201049  RH  060%=      5-min Rain = 0
KSC1 031256Z 31008G13KT 02/M05 A3028 RMK A01 T00211048  RH  060%=      5-min Rain = 0
KSC1 031257Z 31010KT 02/M05 A3028 RMK A01 T00211047  RH  061%=      5-min Rain = 0
KSC1 031258Z 31010KT 02/M05 A3028 RMK A01 T00221047  RH  061%=      5-min Rain = 0
KSC1 031259Z 31007KT 02/M05 A3028 RMK A01 T00221047  RH  060%=      5-min Rain = 0
KSC1 031300Z 31007KT 02/M05 A3028 RMK A01 T00231046  RH  060%=      5-min Rain = 0
KSC1 031301Z 32008KT 02/M05 A3028 RMK A01 T00231047  RH  060%=      5-min Rain = 0
KSC1 031302Z 32010KT 02/M05 A3028 RMK A01 T00231047  RH  060%=      5-min Rain = 0
KSC1 031303Z 31009KT 02/M05 A3028 RMK A01 T00231046  RH  060%=      5-min Rain = 0
KSC1 031304Z 31011KT 02/M05 A3028 RMK A01 T00231046  RH  060%=      5-min Rain = 0
KSC1 031305Z 31007G12KT 02/M05 A3029 RMK A01 T00231046  RH  060%=      5-min Rain = 0
KSC1 031306Z 31007KT 02/M05 A3029 RMK A01 T00241046  RH  060%=      5-min Rain = 0
KSC1 031307Z 31009KT 02/M05 A3029 RMK A01 T00241046  RH  060%=      5-min Rain = 0
KSC1 031308Z 32008KT 02/M05 A3029 RMK A01 T00241045  RH  060%=      5-min Rain = 0
KSC1 031309Z 31011KT 02/M05 A3029 RMK A01 T00241046  RH  060%=      5-min Rain = 0
KSC1 031310Z 32009KT 02/M05 A3029 RMK A01 T00241045  RH  060%=      5-min Rain = 0
KSC1 031311Z 32007KT 02/M05 A3029 RMK A01 T00241045  RH  060%=      5-min Rain = 0
KSC1 031312Z 32007KT 02/M05 A3029 RMK A01 T00241045  RH  060%=      5-min Rain = 0
KSC1 031313Z 32007KT 02/M05 A3029 RMK A01 T00241045  RH  060%=      5-min Rain = 0
KSC1 031314Z 31007KT 02/M05 A3029 RMK A01 T00241045  RH  060%=      5-min Rain = 0
KSC1 031315Z 32010KT 02/M05 A3029 RMK A01 T00241045  RH  060%=      5-min Rain = 0
KSC1 031316Z 31008G13KT 02/M04 A3029 RMK A01 T00241044  RH  060%=      5-min Rain = 0
KSC1 031317Z 31008KT 03/M04 A3029 RMK A01 T00251044  RH  061%=      5-min Rain = 0
KSC1 031318Z 32010KT 03/M04 A3029 RMK A01 T00251044  RH  060%=      5-min Rain = 0
KSC1 031319Z 31008KT 02/M04 A3029 RMK A01 T00241044  RH  060%=      5-min Rain = 0
KSC1 031320Z 32008KT 02/M04 A3029 RMK A01 T00241044  RH  060%=      5-min Rain = 0
KSC1 031321Z 32008KT 03/M04 A3029 RMK A01 T00251044  RH  061%=      5-min Rain = 0
KSC1 031322Z 32009KT 03/M04 A3029 RMK A01 T00251044  RH  061%=      5-min Rain = 0
KSC1 031323Z 31009KT 02/M04 A3029 RMK A01 T00241044  RH  061%=      5-min Rain = 0
KSC1 031324Z 32008G13KT 02/M04 A3029 RMK A01 T00241044  RH  061%=      5-min Rain = 0
KSC1 031325Z 30011KT 02/M04 A3029 RMK A01 T00241043  RH  061%=      5-min Rain = 0
KSC1 031326Z 31010KT 02/M04 A3029 RMK A01 T00241043  RH  061%=      5-min Rain = 0
KSC1 031327Z 31010KT 02/M04 A3029 RMK A01 T00241043  RH  061%=      5-min Rain = 0
KSC1 031328Z 31010KT 03/M04 A3029 RMK A01 T00251043  RH  061%=      5-min Rain = 0
KSC1 031329Z 32007KT 03/M04 A3029 RMK A01 T00251043  RH  061%=      5-min Rain = 0
KSC1 031330Z 32010KT 02/M04 A3029 RMK A01 T00241043  RH  061%=      5-min Rain = 0
KSC1 031331Z 32010KT 03/M04 A3029 RMK A01 T00251042  RH  061%=      5-min Rain = 0
KSC1 031332Z 32011KT 03/M04 A3029 RMK A01 T00251042  RH  061%=      5-min Rain = 0
KSC1 031333Z 31010KT 02/M04 A3029 RMK A01 T00241042  RH  061%=      5-min Rain = 0
KSC1 031334Z 32009KT 03/M04 A3029 RMK A01 T00251042  RH  062%=      5-min Rain = 0
KSC1 031335Z 32012KT 03/M04 A3029 RMK A01 T00251041  RH  062%=      5-min Rain = 0
KSC1 031336Z 32011KT 03/M04 A3029 RMK A01 T00251041  RH  062%=      5-min Rain = 0
KSC1 031337Z 32012KT 03/M04 A3029 RMK A01 T00251041  RH  062%=      5-min Rain = 0
KSC1 031338Z 32011KT 03/M04 A3029 RMK A01 T00251040  RH  062%=      5-min Rain = 0
KSC1 031339Z 33009KT 03/M04 A3029 RMK A01 T00251040  RH  062%=      5-min Rain = 0
KSC1 031340Z 33009G14KT 03/M04 A3029 RMK A01 T00251040  RH  062%=      5-min Rain = 0
KSC1 031341Z 32009KT 03/M04 A3029 RMK A01 T00251040  RH  062%=      5-min Rain = 0
KSC1 031342Z 33009KT 03/M04 A3029 RMK A01 T00251040  RH  062%=      5-min Rain = 0
KSC1 031343Z 32011KT 03/M04 A3029 RMK A01 T00251040  RH  062%=      5-min Rain = 0
KSC1 031344Z 32010KT 03/M04 A3029 RMK A01 T00251040  RH  062%=      5-min Rain = 0
KSC1 031345Z 32010KT 03/M04 A3029 RMK A01 T00251039  RH  063%=      5-min Rain = 0
KSC1 031346Z 32009KT 03/M04 A3029 RMK A01 T00251039  RH  063%=      5-min Rain = 0
KSC1 031347Z 32011KT 03/M04 A3029 RMK A01 T00251039  RH  063%=      5-min Rain = 0
KSC1 031348Z 33011G16KT 03/M04 A3029 RMK A01 T00251039  RH  063%=      5-min Rain = 0
KSC1 031349Z 33010KT 03/M04 A3029 RMK A01 T00251039  RH  063%=      5-min Rain = 0
KSC1 031350Z 32009KT 03/M04 A3029 RMK A01 T00251039  RH  063%=      5-min Rain = 0
KSC1 031351Z 32010KT 03/M04 A3029 RMK A01 T00251039  RH  063%=      5-min Rain = 0
KSC1 031352Z 31008KT 03/M04 A3029 RMK A01 T00251039  RH  063%=      5-min Rain = 0
KSC1 031353Z 32010KT 03/M04 A303 RMK A01 T00251039  RH  063%=      5-min Rain = 0
KSC1 031354Z 32012KT 03/M04 A303 RMK A01 T00251039  RH  063%=      5-min Rain = 0
KSC1 031355Z 32010KT 03/M04 A303 RMK A01 T00251039  RH  063%=      5-min Rain = 0
KSC1 031356Z 32012KT 03/M04 A303 RMK A01 T00251039  RH  063%=      5-min Rain = 0
KSC1 031357Z 32009KT 03/M04 A303 RMK A01 T00251039  RH  063%=      5-min Rain = 0
KSC1 031358Z 32009KT 03/M04 A303 RMK A01 T00251039  RH  063%=      5-min Rain = 0
KSC1 031359Z 33010KT 03/M04 A303 RMK A01 T00251039  RH  063%=      5-min Rain = 0
KSC1 031400Z 33012KT 03/M04 A303 RMK A01 T00251039  RH  063%=      5-min Rain = 0
KSC1 031401Z 32012KT 03/M04 A303 RMK A01 T00251039  RH  063%=      5-min Rain = 0
KSC1 031402Z 33013KT 03/M04 A303 RMK A01 T00251039  RH  063%=      5-min Rain = 0
KSC1 031403Z 32012KT 03/M04 A303 RMK A01 T00251039  RH  063%=      5-min Rain = 0
KSC1 031404Z 32012KT 03/M04 A303 RMK A01 T00251039  RH  063%=      5-min Rain = 0
KSC1 031405Z 33012KT 03/M04 A303 RMK A01 T00251039  RH  063%=      5-min Rain = 0
KSC1 031406Z 32012KT 03/M04 A3031 RMK A01 T00261039  RH  063%=      5-min Rain = 0
KSC1 031407Z 32008KT 03/M04 A3031 RMK A01 T00261038  RH  063%=      5-min Rain = 0
KSC1 031408Z 32006KT 03/M04 A3031 RMK A01 T00261038  RH  063%=      5-min Rain = 0
KSC1 031409Z 33008KT 03/M04 A3031 RMK A01 T00261038  RH  063%=      5-min Rain = 0
KSC1 031410Z 32010KT 03/M04 A3031 RMK A01 T00261038  RH  063%=      5-min Rain = 0
KSC1 031411Z 32011KT 03/M04 A3031 RMK A01 T00261038  RH  063%=      5-min Rain = 0
KSC1 031412Z 32009KT 03/M04 A3031 RMK A01 T00261038  RH  062%=      5-min Rain = 0
KSC1 031413Z 33012G17KT 03/M04 A3031 RMK A01 T00261038  RH  062%=      5-min Rain = 0
KSC1 031414Z 32010G15KT 03/M04 A3031 RMK A01 T00261039  RH  062%=      5-min Rain = 0
KSC1 031415Z 33011KT 03/M04 A3031 RMK A01 T00271038  RH  062%=      5-min Rain = 0
KSC1 031416Z 32012G17KT 03/M04 A3031 RMK A01 T00271039  RH  062%=      5-min Rain = 0
KSC1 031417Z 32010KT 03/M04 A3031 RMK A01 T00271039  RH  062%=      5-min Rain = 0
KSC1 031418Z 33014KT 03/M04 A3031 RMK A01 T00271039  RH  062%=      5-min Rain = 0
KSC1 031419Z 32016KT 03/M04 A3031 RMK A01 T00271039  RH  062%=      5-min Rain = 0
KSC1 031420Z 33014G19KT 03/M04 A3031 RMK A01 T00271040  RH  062%=      5-min Rain = 0
KSC1 031421Z 34014KT 03/M04 A3031 RMK A01 T00271040  RH  062%=      5-min Rain = 0
KSC1 031422Z 34011KT 03/M04 A3031 RMK A01 T00271040  RH  061%=      5-min Rain = 0
KSC1 031423Z 34013KT 03/M04 A3031 RMK A01 T00271040  RH  061%=      5-min Rain = 0
KSC1 031424Z 33013KT 03/M04 A3031 RMK A01 T00271040  RH  061%=      5-min Rain = 0
KSC1 031425Z 34011G16KT 03/M04 A3031 RMK A01 T00271040  RH  061%=      5-min Rain = 0
KSC1 031426Z 34012G17KT 03/M04 A3031 RMK A01 T00271039  RH  061%=      5-min Rain = 0
KSC1 031427Z 34013KT 03/M04 A3031 RMK A01 T00271040  RH  061%=      5-min Rain = 0
KSC1 031428Z 34013KT 03/M04 A3031 RMK A01 T00271040  RH  061%=      5-min Rain = 0
KSC1 031429Z 33013KT 03/M04 A3031 RMK A01 T00271040  RH  061%=      5-min Rain = 0
KSC1 031430Z 33009KT 03/M04 A3031 RMK A01 T00271040  RH  061%=      5-min Rain = 0
KSC1 031431Z 34011KT 03/M04 A3032 RMK A01 T00271040  RH  061%=      5-min Rain = 0
KSC1 031432Z 34008G13KT 03/M04 A3032 RMK A01 T00281040  RH  061%=      5-min Rain = 0
KSC1 031433Z 33012KT 03/M04 A3032 RMK A01 T00281040  RH  061%=      5-min Rain = 0
KSC1 031434Z 33007KT 03/M04 A3032 RMK A01 T00281040  RH  061%=      5-min Rain = 0
KSC1 031435Z 33007KT 03/M04 A3032 RMK A01 T00281040  RH  061%=      5-min Rain = 0
KSC1 031436Z 32012KT 03/M04 A3032 RMK A01 T00281040  RH  061%=      5-min Rain = 0
KSC1 031437Z 33009KT 03/M04 A3032 RMK A01 T00281040  RH  061%=      5-min Rain = 0
KSC1 031438Z 32010KT 03/M04 A3032 RMK A01 T00291040  RH  061%=      5-min Rain = 0
KSC1 031439Z 33010KT 03/M04 A3032 RMK A01 T00291040  RH  060%=      5-min Rain = 0
KSC1 031440Z 33012G18KT 03/M04 A3032 RMK A01 T00291040  RH  060%=      5-min Rain = 0
KSC1 031441Z 34014KT 03/M04 A3032 RMK A01 T00291041  RH  060%=      5-min Rain = 0
KSC1 031442Z 33010KT 03/M04 A3032 RMK A01 T00291041  RH  060%=      5-min Rain = 0
KSC1 031443Z 32011KT 03/M04 A3032 RMK A01 T00291041  RH  060%=      5-min Rain = 0
KSC1 031444Z 34009KT 03/M04 A3032 RMK A01 T00291041  RH  060%=      5-min Rain = 0
KSC1 031445Z 33008KT 03/M04 A3032 RMK A01 T00291041  RH  060%=      5-min Rain = 0
KSC1 031446Z 33011G19KT 03/M04 A3032 RMK A01 T00291041  RH  060%=      5-min Rain = 0
KSC1 031447Z 33016KT 03/M04 A3032 RMK A01 T00301041  RH  060%=      5-min Rain = 0
KSC1 031448Z 33015KT 03/M04 A3032 RMK A01 T00301042  RH  059%=      5-min Rain = 0
KSC1 031449Z 33012KT 03/M04 A3032 RMK A01 T00291042  RH  059%=      5-min Rain = 0
KSC1 031450Z 32015KT 03/M04 A3032 RMK A01 T00291042  RH  059%=      5-min Rain = 0
KSC1 031451Z 33012KT 03/M04 A3032 RMK A01 T00291042  RH  059%=      5-min Rain = 0
KSC1 031452Z 32011KT 03/M04 A3032 RMK A01 T00291043  RH  059%=      5-min Rain = 0
KSC1 031453Z 32015G21KT 03/M04 A3032 RMK A01 T00291042  RH  059%=      5-min Rain = 0
KSC1 031454Z 32010G15KT 03/M04 A3032 RMK A01 T00291043  RH  059%=      5-min Rain = 0
KSC1 031455Z 33011KT 03/M04 A3033 RMK A01 T00291042  RH  059%=      5-min Rain = 0
KSC1 031456Z 33012KT 03/M04 A3033 RMK A01 T00291042  RH  059%=      5-min Rain = 0
KSC1 031457Z 33009KT 03/M04 A3033 RMK A01 T00301042  RH  059%=      5-min Rain = 0
KSC1 031458Z 33011KT 03/M04 A3033 RMK A01 T00301042  RH  059%=      5-min Rain = 0
KSC1 031459Z 33009KT 03/M04 A3033 RMK A01 T00301042  RH  059%=      5-min Rain = 0
KSC1 031500Z 33008KT 03/M04 A3033 RMK A01 T00301042  RH  059%=      5-min Rain = 0
KSC1 031501Z 33010KT 03/M04 A3033 RMK A01 T00301042  RH  059%=      5-min Rain = 0
KSC1 031502Z 33009KT 03/M04 A3033 RMK A01 T00301042  RH  059%=      5-min Rain = 0
KSC1 031503Z 34010G15KT 03/M04 A3033 RMK A01 T00301042  RH  059%=      5-min Rain = 0
KSC1 031504Z 34009G14KT 03/M04 A3033 RMK A01 T00301042  RH  059%=      5-min Rain = 0
KSC1 031505Z 34009G14KT 03/M04 A3033 RMK A01 T00311042  RH  059%=      5-min Rain = 0
KSC1 031506Z 33012G19KT 03/M04 A3033 RMK A01 T00301043  RH  059%=      5-min Rain = 0
KSC1 031507Z 33016KT 03/M04 A3033 RMK A01 T00301043  RH  059%=      5-min Rain = 0
KSC1 031508Z 34013G18KT 03/M04 A3033 RMK A01 T00311043  RH  058%=      5-min Rain = 0
KSC1 031509Z 34014KT 03/M04 A3033 RMK A01 T00301044  RH  059%=      5-min Rain = 0
KSC1 031510Z 33015KT 03/M04 A3033 RMK A01 T00301043  RH  059%=      5-min Rain = 0
KSC1 031511Z 33013KT 03/M04 A3033 RMK A01 T00301043  RH  059%=      5-min Rain = 0
KSC1 031512Z 32012G19KT 03/M04 A3033 RMK A01 T00301043  RH  059%=      5-min Rain = 0
KSC1 031513Z 33012KT 03/M04 A3033 RMK A01 T00301043  RH  058%=      5-min Rain = 0
KSC1 031514Z 34012KT 03/M04 A3033 RMK A01 T00301043  RH  058%=      5-min Rain = 0
KSC1 031515Z 33012G17KT 03/M04 A3033 RMK A01 T00311043  RH  058%=      5-min Rain = 0
KSC1 031516Z 33010KT 03/M04 A3033 RMK A01 T00301044  RH  058%=      5-min Rain = 0
KSC1 031517Z 33012G18KT 03/M04 A3033 RMK A01 T00311043  RH  058%=      5-min Rain = 0
KSC1 031518Z 34012KT 03/M04 A3033 RMK A01 T00311043  RH  058%=      5-min Rain = 0
KSC1 031519Z 33010G15KT 03/M04 A3033 RMK A01 T00311043  RH  058%=      5-min Rain = 0
KSC1 031520Z 33012KT 03/M04 A3033 RMK A01 T00311043  RH  058%=      5-min Rain = 0
KSC1 031521Z 33011KT 03/M04 A3033 RMK A01 T00311043  RH  058%=      5-min Rain = 0
KSC1 031522Z 33015KT 03/M04 A3033 RMK A01 T00321043  RH  058%=      5-min Rain = 0
KSC1 031523Z 33013KT 03/M04 A3033 RMK A01 T00321043  RH  058%=      5-min Rain = 0
KSC1 031524Z 33012KT 03/M04 A3033 RMK A01 T00321043  RH  058%=      5-min Rain = 0
KSC1 031525Z 33011KT 03/M04 A3034 RMK A01 T00321042  RH  058%=      5-min Rain = 0
KSC1 031526Z 33011KT 03/M04 A3034 RMK A01 T00321043  RH  058%=      5-min Rain = 0
KSC1 031527Z 33008KT 03/M04 A3034 RMK A01 T00321043  RH  058%=      5-min Rain = 0
KSC1 031528Z 34007KT 03/M04 A3034 RMK A01 T00331042  RH  058%=      5-min Rain = 0
KSC1 031529Z 34010G15KT 03/M04 A3034 RMK A01 T00331042  RH  058%=      5-min Rain = 0
KSC1 031530Z 34013KT 03/M04 A3034 RMK A01 T00331042  RH  058%=      5-min Rain = 0
KSC1 031531Z 34013KT 03/M04 A3034 RMK A01 T00331043  RH  058%=      5-min Rain = 0
KSC1 031532Z 34011KT 03/M04 A3034 RMK A01 T00321043  RH  058%=      5-min Rain = 0
KSC1 031533Z 34010KT 03/M04 A3034 RMK A01 T00321042  RH  058%=      5-min Rain = 0
KSC1 031534Z 34008KT 03/M04 A3034 RMK A01 T00321043  RH  058%=      5-min Rain = 0
KSC1 031535Z 34008KT 03/M04 A3034 RMK A01 T00331042  RH  058%=      5-min Rain = 0
KSC1 031536Z 33011KT 03/M04 A3034 RMK A01 T00331042  RH  058%=      5-min Rain = 0
KSC1 031537Z 33010KT 03/M04 A3034 RMK A01 T00331042  RH  058%=      5-min Rain = 0
KSC1 031538Z 32012KT 03/M04 A3034 RMK A01 T00331042  RH  058%=      5-min Rain = 0
KSC1 031539Z 32010KT 03/M04 A3034 RMK A01 T00331043  RH  058%=      5-min Rain = 0
KSC1 031540Z 33011KT 03/M04 A3034 RMK A01 T00331043  RH  058%=      5-min Rain = 0
KSC1 031541Z 33010KT 03/M04 A3034 RMK A01 T00331043  RH  058%=      5-min Rain = 0
KSC1 031542Z 34009KT 03/M04 A3034 RMK A01 T00331043  RH  058%=      5-min Rain = 0
KSC1 031543Z 33011KT 03/M04 A3034 RMK A01 T00331042  RH  058%=      5-min Rain = 0
KSC1 031544Z 32011KT 03/M04 A3034 RMK A01 T00331043  RH  058%=      5-min Rain = 0
KSC1 031545Z 33011KT 03/M04 A3034 RMK A01 T00331043  RH  057%=      5-min Rain = 0
KSC1 031546Z 33011KT 03/M04 A3034 RMK A01 T00331043  RH  057%=      5-min Rain = 0
KSC1 031547Z 34009KT 03/M04 A3034 RMK A01 T00331043  RH  057%=      5-min Rain = 0
KSC1 031548Z 33013KT 03/M04 A3034 RMK A01 T00341043  RH  057%=      5-min Rain = 0
KSC1 031549Z 33012KT 03/M04 A3034 RMK A01 T00341043  RH  057%=      5-min Rain = 0
KSC1 031550Z 34011KT 03/M04 A3034 RMK A01 T00341043  RH  057%=      5-min Rain = 0
KSC1 031551Z 33011KT 03/M04 A3034 RMK A01 T00341043  RH  057%=      5-min Rain = 0
KSC1 031552Z 33014KT 03/M04 A3034 RMK A01 T00341043  RH  057%=      5-min Rain = 0
KSC1 031553Z 34012KT 03/M04 A3034 RMK A01 T00341043  RH  057%=      5-min Rain = 0
KSC1 031554Z 33011G16KT 03/M04 A3034 RMK A01 T00341044  RH  057%=      5-min Rain = 0
KSC1 031555Z 33012G17KT 03/M04 A3034 RMK A01 T00341044  RH  057%=      5-min Rain = 0
KSC1 031556Z 33012KT 03/M04 A3034 RMK A01 T00341044  RH  057%=      5-min Rain = 0
KSC1 031557Z 34011KT 03/M04 A3034 RMK A01 T00341044  RH  057%=      5-min Rain = 0
KSC1 031558Z 33016KT 04/M04 A3035 RMK A01 T00351044  RH  057%=      5-min Rain = 0
KSC1 031559Z 33014KT 03/M04 A3035 RMK A01 T00341044  RH  056%=      5-min Rain = 0
KSC1 031600Z 33014KT 03/M04 A3035 RMK A01 T00341044  RH  057%=      5-min Rain = 0
KSC1 031601Z 33012KT 03/M04 A3035 RMK A01 T00341044  RH  057%=      5-min Rain = 0
KSC1 031602Z 35012KT 03/M04 A3035 RMK A01 T00341044  RH  057%=      5-min Rain = 0
KSC1 031603Z 34011KT 03/M04 A3035 RMK A01 T00341044  RH  057%=      5-min Rain = 0
KSC1 031604Z 34014KT 03/M04 A3035 RMK A01 T00341044  RH  057%=      5-min Rain = 0
KSC1 031605Z 34015KT 03/M04 A3035 RMK A01 T00341044  RH  057%=      5-min Rain = 0
KSC1 031606Z 34013KT 03/M04 A3035 RMK A01 T00341044  RH  057%=      5-min Rain = 0
KSC1 031607Z 34012KT 03/M04 A3035 RMK A01 T00341044  RH  057%=      5-min Rain = 0
KSC1 031608Z 34014G19KT 03/M05 A3035 RMK A01 T00331045  RH  057%=      5-min Rain = 0
KSC1 031609Z 34010KT 03/M05 A3035 RMK A01 T00341045  RH  056%=      5-min Rain = 0
KSC1 031610Z 34011G17KT 03/M04 A3035 RMK A01 T00341044  RH  056%=      5-min Rain = 0
KSC1 031611Z 34015KT 04/M05 A3035 RMK A01 T00351045  RH  056%=      5-min Rain = 0
KSC1 031612Z 34014KT 04/M05 A3035 RMK A01 T00351045  RH  056%=      5-min Rain = 0
KSC1 031613Z 33014KT 03/M05 A3035 RMK A01 T00341045  RH  056%=      5-min Rain = 0
KSC1 031614Z 34013KT 03/M05 A3035 RMK A01 T00341046  RH  056%=      5-min Rain = 0
KSC1 031615Z 35012KT 03/M05 A3035 RMK A01 T00341045  RH  056%=      5-min Rain = 0
KSC1 031616Z 34012KT 03/M05 A3035 RMK A01 T00341045  RH  056%=      5-min Rain = 0
KSC1 031617Z 33013KT 04/M04 A3035 RMK A01 T00351044  RH  056%=      5-min Rain = 0
KSC1 031618Z 34011KT 04/M04 A3035 RMK A01 T00351044  RH  056%=      5-min Rain = 0
KSC1 031619Z 34012KT 04/M04 A3035 RMK A01 T00351044  RH  056%=      5-min Rain = 0
KSC1 031620Z 34014KT 04/M04 A3035 RMK A01 T00351044  RH  056%=      5-min Rain = 0
KSC1 031621Z 34013KT 04/M04 A3035 RMK A01 T00351044  RH  056%=      5-min Rain = 0
KSC1 031622Z 35011G16KT 03/M05 A3035 RMK A01 T00341045  RH  056%=      5-min Rain = 0
KSC1 031623Z 35013KT 03/M04 A3035 RMK A01 T00341044  RH  056%=      5-min Rain = 0
KSC1 031624Z 35011KT 03/M04 A3035 RMK A01 T00341044  RH  056%=      5-min Rain = 0
KSC1 031625Z 35012KT 03/M04 A3035 RMK A01 T00341044  RH  056%=      5-min Rain = 0
KSC1 031626Z 35012KT 03/M04 A3035 RMK A01 T00341044  RH  057%=      5-min Rain = 0
KSC1 031627Z 34011KT 03/M04 A3035 RMK A01 T00341044  RH  057%=      5-min Rain = 0
KSC1 031628Z 34010KT 04/M04 A3035 RMK A01 T00351044  RH  057%=      5-min Rain = 0
KSC1 031629Z 35010KT 04/M04 A3035 RMK A01 T00351043  RH  056%=      5-min Rain = 0
KSC1 031630Z 35007KT 04/M04 A3035 RMK A01 T00351043  RH  056%=      5-min Rain = 0
KSC1 031631Z 35008KT 04/M04 A3035 RMK A01 T00361043  RH  056%=      5-min Rain = 0
KSC1 031632Z 34009KT 04/M04 A3035 RMK A01 T00371043  RH  056%=      5-min Rain = 0
KSC1 031633Z 35007KT 04/M04 A3035 RMK A01 T00371043  RH  056%=      5-min Rain = 0
KSC1 031634Z 33009KT 04/M04 A3035 RMK A01 T00371043  RH  056%=      5-min Rain = 0
KSC1 031635Z 32011G16KT 04/M04 A3035 RMK A01 T00371043  RH  056%=      5-min Rain = 0
KSC1 031636Z 33010KT 04/M04 A3035 RMK A01 T00371043  RH  056%=      5-min Rain = 0
KSC1 031637Z 32012KT 04/M04 A3035 RMK A01 T00371043  RH  056%=      5-min Rain = 0
KSC1 031638Z 33010KT 04/M04 A3035 RMK A01 T00371043  RH  056%=      5-min Rain = 0
KSC1 031639Z 32010KT 04/M04 A3035 RMK A01 T00371043  RH  056%=      5-min Rain = 0
KSC1 031640Z 32012KT 04/M04 A3035 RMK A01 T00371043  RH  056%=      5-min Rain = 0
KSC1 031641Z 31011KT 04/M04 A3035 RMK A01 T00371043  RH  056%=      5-min Rain = 0
KSC1 031642Z 33011KT 04/M04 A3035 RMK A01 T00371043  RH  056%=      5-min Rain = 0
KSC1 031643Z 32011KT 04/M04 A3035 RMK A01 T00371043  RH  056%=      5-min Rain = 0
KSC1 031644Z 33010KT 04/M04 A3035 RMK A01 T00371043  RH  056%=      5-min Rain = 0
KSC1 031645Z 33012KT 04/M04 A3035 RMK A01 T00371044  RH  056%=      5-min Rain = 0
KSC1 031646Z 34008KT 04/M04 A3035 RMK A01 T00371043  RH  056%=      5-min Rain = 0
KSC1 031647Z 34011KT 04/M04 A3035 RMK A01 T00371043  RH  056%=      5-min Rain = 0
KSC1 031648Z 34010KT 04/M04 A3035 RMK A01 T00371043  RH  056%=      5-min Rain = 0
KSC1 031649Z 35011KT 04/M04 A3035 RMK A01 T00371043  RH  056%=      5-min Rain = 0
KSC1 031650Z 34010KT 04/M04 A3035 RMK A01 T00371043  RH  056%=      5-min Rain = 0
KSC1 031651Z 34012KT 04/M04 A3035 RMK A01 T00371042  RH  056%=      5-min Rain = 0
KSC1 031652Z 33011KT 04/M04 A3035 RMK A01 T00371042  RH  056%=      5-min Rain = 0
KSC1 031653Z 34009KT 04/M04 A3035 RMK A01 T00371042  RH  056%=      5-min Rain = 0
KSC1 031654Z 33009KT 04/M04 A3035 RMK A01 T00361042  RH  056%=      5-min Rain = 0
KSC1 031655Z 33009KT 04/M04 A3035 RMK A01 T00361042  RH  057%=      5-min Rain = 0
KSC1 031656Z 33011KT 04/M04 A3035 RMK A01 T00371042  RH  056%=      5-min Rain = 0
KSC1 031657Z 32010KT 04/M04 A3035 RMK A01 T00371042  RH  056%=      5-min Rain = 0
KSC1 031658Z 33010KT 04/M04 A3035 RMK A01 T00371042  RH  056%=      5-min Rain = 0
KSC1 031659Z 33011KT 04/M04 A3035 RMK A01 T00371042  RH  056%=      5-min Rain = 0
KSC1 031700Z 32011KT 04/M04 A3035 RMK A01 T00371042  RH  057%=      5-min Rain = 0
KSC1 031701Z 32011KT 04/M04 A3035 RMK A01 T00371041  RH  057%=      5-min Rain = 0
KSC1 031702Z 32009G15KT 04/M04 A3035 RMK A01 T00381041  RH  056%=      5-min Rain = 0
KSC1 031703Z 32011KT 04/M04 A3035 RMK A01 T00381042  RH  056%=      5-min Rain = 0
KSC1 031704Z 33011KT 04/M04 A3035 RMK A01 T00381041  RH  056%=      5-min Rain = 0
KSC1 031705Z 33013KT 04/M04 A3035 RMK A01 T00381041  RH  056%=      5-min Rain = 0
KSC1 031706Z 33009KT 04/M04 A3035 RMK A01 T00381042  RH  056%=      5-min Rain = 0
KSC1 031707Z 32009KT 04/M04 A3035 RMK A01 T00381041  RH  056%=      5-min Rain = 0
KSC1 031708Z 33012KT 04/M04 A3035 RMK A01 T00401041  RH  056%=      5-min Rain = 0
KSC1 031709Z 34012KT 04/M04 A3035 RMK A01 T00391042  RH  055%=      5-min Rain = 0
KSC1 031710Z 33009KT 04/M04 A3035 RMK A01 T00391042  RH  055%=      5-min Rain = 0
KSC1 031711Z 34009KT 04/M04 A3035 RMK A01 T00391042  RH  055%=      5-min Rain = 0
KSC1 031712Z 35009KT 04/M04 A3035 RMK A01 T00401042  RH  055%=      5-min Rain = 0
KSC1 031713Z 34009KT 04/M04 A3035 RMK A01 T00401042  RH  055%=      5-min Rain = 0
KSC1 031714Z 34009KT 04/M04 A3035 RMK A01 T00401042  RH  055%=      5-min Rain = 0
KSC1 031715Z 34012G17KT 04/M04 A3035 RMK A01 T00401042  RH  055%=      5-min Rain = 0
KSC1 031716Z 34013KT 04/M04 A3035 RMK A01 T00401042  RH  055%=      5-min Rain = 0
KSC1 031717Z 35012KT 04/M04 A3035 RMK A01 T00391043  RH  055%=      5-min Rain = 0
KSC1 031718Z 34014KT 04/M04 A3035 RMK A01 T00391043  RH  055%=      5-min Rain = 0
KSC1 031719Z 34012KT 04/M04 A3035 RMK A01 T00391043  RH  055%=      5-min Rain = 0
KSC1 031720Z 33014G19KT 04/M04 A3035 RMK A01 T00401042  RH  055%=      5-min Rain = 0
KSC1 031721Z 33013KT 04/M04 A3035 RMK A01 T00401043  RH  055%=      5-min Rain = 0
KSC1 031722Z 33011KT 04/M04 A3035 RMK A01 T00401043  RH  055%=      5-min Rain = 0
KSC1 031723Z 33009G16KT 04/M04 A3035 RMK A01 T00401043  RH  055%=      5-min Rain = 0
KSC1 031724Z 33010G17KT 04/M04 A3035 RMK A01 T00421042  RH  055%=      5-min Rain = 0
KSC1 031725Z 33009KT 04/M04 A3035 RMK A01 T00421042  RH  054%=      5-min Rain = 0
KSC1 031726Z 32013KT 04/M04 A3035 RMK A01 T00421042  RH  054%=      5-min Rain = 0
KSC1 031727Z 33014KT 04/M04 A3035 RMK A01 T00421042  RH  054%=      5-min Rain = 0
KSC1 031728Z 33015KT 04/M04 A3035 RMK A01 T00411043  RH  054%=      5-min Rain = 0
KSC1 031729Z 33011KT 04/M04 A3035 RMK A01 T00401043  RH  055%=      5-min Rain = 0
KSC1 031730Z 34012KT 04/M04 A3035 RMK A01 T00401042  RH  055%=      5-min Rain = 0
KSC1 031731Z 35012KT 04/M04 A3035 RMK A01 T00401042  RH  055%=      5-min Rain = 0
KSC1 031732Z 34012G18KT 04/M04 A3035 RMK A01 T00401042  RH  055%=      5-min Rain = 0
KSC1 031733Z 33012KT 04/M04 A3035 RMK A01 T00411042  RH  055%=      5-min Rain = 0
KSC1 031734Z 33011KT 04/M04 A3035 RMK A01 T00411042  RH  055%=      5-min Rain = 0
KSC1 031735Z 32012KT 04/M04 A3035 RMK A01 T00411041  RH  055%=      5-min Rain = 0
KSC1 031736Z 33011KT 04/M04 A3035 RMK A01 T00411041  RH  055%=      5-min Rain = 0
KSC1 031737Z 33009KT 04/M04 A3035 RMK A01 T00411041  RH  055%=      5-min Rain = 0
KSC1 031738Z 34010KT 04/M04 A3035 RMK A01 T00411040  RH  055%=      5-min Rain = 0
KSC1 031739Z 33012KT 04/M04 A3035 RMK A01 T00421040  RH  055%=      5-min Rain = 0
KSC1 031740Z 32012KT 04/M04 A3035 RMK A01 T00431040  RH  055%=      5-min Rain = 0
KSC1 031741Z 32010KT 04/M04 A3035 RMK A01 T00421041  RH  055%=      5-min Rain = 0
KSC1 031742Z 32010KT 04/M04 A3035 RMK A01 T00411041  RH  055%=      5-min Rain = 0
KSC1 031743Z 32010G15KT 04/M04 A3035 RMK A01 T00411041  RH  055%=      5-min Rain = 0
KSC1 031744Z 32012KT 04/M04 A3035 RMK A01 T00411040  RH  055%=      5-min Rain = 0
KSC1 031745Z 34010KT 04/M04 A3035 RMK A01 T00411040  RH  055%=      5-min Rain = 0
KSC1 031746Z 34009KT 04/M04 A3035 RMK A01 T00421040  RH  055%=      5-min Rain = 0
KSC1 031747Z 32007KT 04/M04 A3035 RMK A01 T00421040  RH  055%=      5-min Rain = 0
KSC1 031748Z 34007KT 04/M04 A3035 RMK A01 T00431039  RH  055%=      5-min Rain = 0
KSC1 031749Z 33008KT 04/M04 A3035 RMK A01 T00441039  RH  055%=      5-min Rain = 0
KSC1 031750Z 33007KT 04/M04 A3035 RMK A01 T00441039  RH  055%=      5-min Rain = 0
KSC1 031751Z 32009KT 05/M04 A3035 RMK A01 T00451039  RH  055%=      5-min Rain = 0
KSC1 031752Z 34007G12KT 05/M04 A3035 RMK A01 T00451039  RH  054%=      5-min Rain = 0
KSC1 031753Z 33009KT 05/M04 A3035 RMK A01 T00461039  RH  054%=      5-min Rain = 0
KSC1 031754Z 34008KT 05/M04 A3034 RMK A01 T00451040  RH  054%=      5-min Rain = 0
KSC1 031755Z 35011KT 04/M04 A3034 RMK A01 T00441040  RH  055%=      5-min Rain = 0
KSC1 031756Z 32011G16KT 04/M04 A3034 RMK A01 T00441040  RH  055%=      5-min Rain = 0
KSC1 031757Z 32010KT 04/M04 A3034 RMK A01 T00431040  RH  055%=      5-min Rain = 0
KSC1 031758Z 33007KT 04/M04 A3034 RMK A01 T00431039  RH  055%=      5-min Rain = 0
KSC1 031759Z 33008KT 04/M04 A3034 RMK A01 T00431039  RH  055%=      5-min Rain = 0
KSC1 031800Z 33009KT 04/M04 A3034 RMK A01 T00431039  RH  055%=      5-min Rain = 0
KSC1 031801Z 34008KT 04/M04 A3034 RMK A01 T00431039  RH  055%=      5-min Rain = 0
KSC1 031802Z 32010KT 04/M04 A3034 RMK A01 T00431039  RH  055%=      5-min Rain = 0
KSC1 031803Z 32009KT 04/M04 A3034 RMK A01 T00441040  RH  055%=      5-min Rain = 0
KSC1 031804Z 32008KT 04/M04 A3034 RMK A01 T00441040  RH  054%=      5-min Rain = 0
KSC1 031805Z 32009KT 04/M04 A3034 RMK A01 T00441040  RH  054%=      5-min Rain = 0
KSC1 031806Z 31009KT 05/M04 A3034 RMK A01 T00451040  RH  054%=      5-min Rain = 0
KSC1 031807Z 32009G14KT 05/M04 A3034 RMK A01 T00451040  RH  054%=      5-min Rain = 0
KSC1 031808Z 33008KT 05/M04 A3034 RMK A01 T00451040  RH  054%=      5-min Rain = 0
KSC1 031809Z 34011KT 05/M04 A3033 RMK A01 T00451040  RH  054%=      5-min Rain = 0
KSC1 031810Z 31010KT 05/M04 A3033 RMK A01 T00451040  RH  054%=      5-min Rain = 0
KSC1 031811Z 32008KT 04/M04 A3033 RMK A01 T00441040  RH  054%=      5-min Rain = 0
KSC1 031812Z 32006KT 05/M04 A3033 RMK A01 T00451040  RH  054%=      5-min Rain = 0
KSC1 031813Z 33006KT 05/M04 A3033 RMK A01 T00461039  RH  054%=      5-min Rain = 0
KSC1 031814Z 34008KT 05/M04 A3033 RMK A01 T00471039  RH  054%=      5-min Rain = 0
KSC1 031815Z 35009KT 05/M04 A3033 RMK A01 T00481038  RH  054%=      5-min Rain = 0
KSC1 031816Z 35010KT 05/M04 A3033 RMK A01 T00481039  RH  053%=      5-min Rain = 0
KSC1 031817Z 34010KT 05/M04 A3033 RMK A01 T00471040  RH  053%=      5-min Rain = 0
KSC1 031818Z 33011KT 05/M04 A3033 RMK A01 T00471040  RH  053%=      5-min Rain = 0
KSC1 031819Z 32008KT 05/M04 A3033 RMK A01 T00461040  RH  053%=      5-min Rain = 0
KSC1 031820Z 32007KT 05/M04 A3032 RMK A01 T00471039  RH  053%=      5-min Rain = 0
KSC1 031821Z 34008G13KT 05/M04 A3032 RMK A01 T00481039  RH  053%=      5-min Rain = 0
KSC1 031822Z 31010KT 05/M04 A3032 RMK A01 T00491039  RH  053%=      5-min Rain = 0
KSC1 031823Z 33010KT 05/M04 A3032 RMK A01 T00491039  RH  053%=      5-min Rain = 0
KSC1 031824Z 34010KT 05/M04 A3032 RMK A01 T00491039  RH  053%=      5-min Rain = 0
KSC1 031825Z 34011KT 05/M04 A3032 RMK A01 T00491039  RH  053%=      5-min Rain = 0
KSC1 031826Z 34012KT 05/M04 A3032 RMK A01 T00491039  RH  053%=      5-min Rain = 0
KSC1 031827Z 33010KT 05/M04 A3032 RMK A01 T00501039  RH  053%=      5-min Rain = 0
KSC1 031828Z 35010KT 05/M04 A3032 RMK A01 T00501039  RH  052%=      5-min Rain = 0
KSC1 031829Z 35009KT 05/M04 A3032 RMK A01 T00491040  RH  052%=      5-min Rain = 0
KSC1 031830Z 35010KT 05/M04 A3032 RMK A01 T00501039  RH  053%=      5-min Rain = 0
KSC1 031831Z 35007KT 05/M04 A3032 RMK A01 T00491040  RH  052%=      5-min Rain = 0
KSC1 031832Z 36008KT 05/M04 A3032 RMK A01 T00491039  RH  053%=      5-min Rain = 0
KSC1 031833Z 36009KT 05/M04 A3032 RMK A01 T00501040  RH  052%=      5-min Rain = 0
KSC1 031834Z 35007KT 05/M04 A3032 RMK A01 T00491040  RH  052%=      5-min Rain = 0
KSC1 031835Z 34007KT 05/M04 A3032 RMK A01 T00491040  RH  053%=      5-min Rain = 0
KSC1 031836Z 34007KT 05/M04 A3032 RMK A01 T00501038  RH  053%=      5-min Rain = 0
KSC1 031837Z 34010KT 05/M04 A3032 RMK A01 T00521037  RH  052%=      5-min Rain = 0
KSC1 031838Z 34010KT 05/M04 A3032 RMK A01 T00531038  RH  052%=      5-min Rain = 0
KSC1 031839Z 34007KT 05/M04 A3032 RMK A01 T00511039  RH  052%=      5-min Rain = 0
KSC1 031840Z 34010KT 05/M04 A3032 RMK A01 T00501039  RH  052%=      5-min Rain = 0
KSC1 031841Z 34010KT 05/M04 A3032 RMK A01 T00501039  RH  052%=      5-min Rain = 0
KSC1 031842Z 34010KT 05/M04 A3032 RMK A01 T00501039  RH  052%=      5-min Rain = 0
KSC1 031843Z 34007KT 05/M04 A3032 RMK A01 T00501039  RH  052%=      5-min Rain = 0
KSC1 031844Z 00007KT 05/M04 A3032 RMK A01 T00511038  RH  053%=      5-min Rain = 0
KSC1 031845Z 35008KT 05/M04 A3031 RMK A01 T00521038  RH  052%=      5-min Rain = 0
KSC1 031846Z 34007KT 05/M04 A3031 RMK A01 T00521039  RH  052%=      5-min Rain = 0
KSC1 031847Z 32006KT 05/M04 A3031 RMK A01 T00511039  RH  052%=      5-min Rain = 0
KSC1 031848Z 32008KT 05/M04 A3031 RMK A01 T00501039  RH  052%=      5-min Rain = 0
KSC1 031849Z 32009KT 05/M04 A3031 RMK A01 T00511038  RH  052%=      5-min Rain = 0
KSC1 031850Z 34009KT 05/M04 A3031 RMK A01 T00521038  RH  052%=      5-min Rain = 0
KSC1 031851Z 34010KT 05/M04 A3031 RMK A01 T00531038  RH  052%=      5-min Rain = 0
KSC1 031852Z 35008KT 05/M04 A3031 RMK A01 T00521039  RH  052%=      5-min Rain = 0
KSC1 031853Z 36006KT 05/M04 A3031 RMK A01 T00521038  RH  052%=      5-min Rain = 0
KSC1 031854Z 35006KT 05/M04 A3031 RMK A01 T00531038  RH  052%=      5-min Rain = 0
KSC1 031855Z 35007KT 05/M04 A3031 RMK A01 T00541037  RH  052%=      5-min Rain = 0
KSC1 031856Z 33010KT 06/M03 A3031 RMK A01 T00571034  RH  052%=      5-min Rain = 0
KSC1 031857Z 32011KT 06/M04 A3031 RMK A01 T00601035  RH  050%=      5-min Rain = 0
KSC1 031858Z 32008KT 06/M04 A3031 RMK A01 T00601038  RH  050%=      5-min Rain = 0
KSC1 031859Z 32011KT 06/M04 A3031 RMK A01 T00591039  RH  050%=      5-min Rain = 0
KSC1 031900Z 32010KT 06/M04 A3031 RMK A01 T00581039  RH  050%=      5-min Rain = 0
KSC1 031901Z 33007KT 06/M04 A3031 RMK A01 T00571038  RH  050%=      5-min Rain = 0
KSC1 031902Z 35008KT 06/M04 A3031 RMK A01 T00591036  RH  050%=      5-min Rain = 0
KSC1 031903Z 34010KT 06/M04 A3031 RMK A01 T00601038  RH  050%=      5-min Rain = 0
KSC1 031904Z 33009KT 06/M04 A3031 RMK A01 T00581040  RH  049%=      5-min Rain = 0
KSC1 031905Z 33010KT 06/M04 A303 RMK A01 T00571040  RH  050%=      5-min Rain = 0
KSC1 031906Z 35009KT 06/M04 A3031 RMK A01 T00571039  RH  050%=      5-min Rain = 0
KSC1 031907Z 35010KT 06/M04 A3031 RMK A01 T00581039  RH  050%=      5-min Rain = 0
KSC1 031908Z 35011KT 06/M04 A3031 RMK A01 T00561041  RH  050%=      5-min Rain = 0
KSC1 031909Z 35009KT 06/M04 A3031 RMK A01 T00551041  RH  050%=      5-min Rain = 0
KSC1 031910Z 35010KT 06/M04 A3031 RMK A01 T00551040  RH  050%=      5-min Rain = 0
KSC1 031911Z 35010KT 06/M04 A3031 RMK A01 T00551040  RH  050%=      5-min Rain = 0
KSC1 031912Z 34010KT 06/M04 A303 RMK A01 T00551040  RH  050%=      5-min Rain = 0
KSC1 031913Z 34007KT 05/M04 A303 RMK A01 T00541040  RH  051%=      5-min Rain = 0
KSC1 031914Z 35009KT 06/M04 A303 RMK A01 T00551039  RH  051%=      5-min Rain = 0
KSC1 031915Z 33012KT 06/M04 A303 RMK A01 T00561039  RH  051%=      5-min Rain = 0
KSC1 031916Z 34010KT 06/M04 A303 RMK A01 T00561039  RH  050%=      5-min Rain = 0
KSC1 031917Z 35007KT 06/M04 A303 RMK A01 T00561040  RH  050%=      5-min Rain = 0
KSC1 031918Z 34010KT 06/M04 A303 RMK A01 T00571038  RH  050%=      5-min Rain = 0
KSC1 031919Z 34011KT 06/M04 A303 RMK A01 T00581039  RH  050%=      5-min Rain = 0
KSC1 031920Z 34007KT 06/M04 A303 RMK A01 T00581040  RH  050%=      5-min Rain = 0
KSC1 031921Z 35010KT 06/M04 A303 RMK A01 T00571039  RH  050%=      5-min Rain = 0
KSC1 031922Z 35010KT 06/M04 A303 RMK A01 T00571040  RH  050%=      5-min Rain = 0
KSC1 031923Z 00010KT 06/M04 A303 RMK A01 T00561041  RH  050%=      5-min Rain = 0
KSC1 031924Z 00009KT 06/M04 A303 RMK A01 T00551041  RH  050%=      5-min Rain = 0
KSC1 031925Z 01008KT 05/M04 A303 RMK A01 T00541042  RH  050%=      5-min Rain = 0
KSC1 031926Z 00007KT 05/M04 A303 RMK A01 T00531041  RH  050%=      5-min Rain = 0
KSC1 031927Z 36009KT 05/M04 A303 RMK A01 T00541041  RH  050%=      5-min Rain = 0
KSC1 031928Z 34009KT 05/M04 A303 RMK A01 T00541041  RH  050%=      5-min Rain = 0
KSC1 031929Z 34008KT 05/M04 A303 RMK A01 T00531041  RH  050%=      5-min Rain = 0
KSC1 031930Z 34009KT 05/M04 A303 RMK A01 T00541041  RH  050%=      5-min Rain = 0
KSC1 031931Z 34007KT 05/M04 A303 RMK A01 T00531041  RH  051%=      5-min Rain = 0
KSC1 031932Z 35005KT 05/M04 A303 RMK A01 T00531041  RH  051%=      5-min Rain = 0
KSC1 031933Z 34007G13KT 05/M04 A303 RMK A01 T00541040  RH  051%=      5-min Rain = 0
KSC1 031934Z 34009KT 05/M04 A303 RMK A01 T00541041  RH  050%=      5-min Rain = 0
KSC1 031935Z 34009KT 06/M04 A303 RMK A01 T00551041  RH  050%=      5-min Rain = 0
KSC1 031936Z 33008KT 06/M04 A303 RMK A01 T00551041  RH  050%=      5-min Rain = 0
KSC1 031937Z 32009KT 06/M04 A303 RMK A01 T00551041  RH  050%=      5-min Rain = 0
KSC1 031938Z 33008KT 06/M04 A303 RMK A01 T00551041  RH  050%=      5-min Rain = 0
KSC1 031939Z 35006KT 05/M04 A303 RMK A01 T00541042  RH  050%=      5-min Rain = 0
KSC1 031940Z 01007KT 05/M04 A303 RMK A01 T00541041  RH  050%=      5-min Rain = 0
KSC1 031941Z 01006KT 05/M04 A303 RMK A01 T00541041  RH  050%=      5-min Rain = 0
KSC1 031942Z 36005KT 06/M04 A303 RMK A01 T00551041  RH  050%=      5-min Rain = 0
KSC1 031943Z 35005KT 06/M04 A3029 RMK A01 T00551040  RH  050%=      5-min Rain = 0
KSC1 031944Z 34005KT 06/M04 A3029 RMK A01 T00561040  RH  050%=      5-min Rain = 0
KSC1 031945Z 34007KT 06/M04 A3029 RMK A01 T00581039  RH  050%=      5-min Rain = 0
KSC1 031946Z 34009KT 06/M04 A3029 RMK A01 T00591040  RH  049%=      5-min Rain = 0
KSC1 031947Z 00008KT 06/M04 A3029 RMK A01 T00571041  RH  049%=      5-min Rain = 0
KSC1 031948Z 36005KT 06/M04 A3029 RMK A01 T00561042  RH  049%=      5-min Rain = 0
KSC1 031949Z 34007KT 06/M04 A3029 RMK A01 T00561042  RH  050%=      5-min Rain = 0
KSC1 031950Z 33005KT 06/M04 A3029 RMK A01 T00551041  RH  050%=      5-min Rain = 0
KSC1 031951Z 36008KT 06/M04 A3029 RMK A01 T00561041  RH  050%=      5-min Rain = 0
KSC1 031952Z 36009KT 06/M04 A3029 RMK A01 T00561040  RH  050%=      5-min Rain = 0
KSC1 031953Z 35007KT 06/M04 A3029 RMK A01 T00561040  RH  050%=      5-min Rain = 0
KSC1 031954Z 36008KT 06/M04 A3029 RMK A01 T00571040  RH  050%=      5-min Rain = 0
KSC1 031955Z 34009KT 06/M04 A3029 RMK A01 T00581039  RH  050%=      5-min Rain = 0
KSC1 031956Z 35009KT 06/M04 A3029 RMK A01 T00581040  RH  049%=      5-min Rain = 0
KSC1 031957Z 35008KT 06/M04 A3029 RMK A01 T00571041  RH  050%=      5-min Rain = 0
KSC1 031958Z 34007KT 06/M04 A3028 RMK A01 T00561041  RH  050%=      5-min Rain = 0
KSC1 031959Z 34006KT 06/M04 A3028 RMK A01 T00561040  RH  050%=      5-min Rain = 0
KSC1 032000Z 34005KT 06/M04 A3028 RMK A01 T00561040  RH  050%=      5-min Rain = 0
KSC1 032001Z 32006KT 06/M04 A3028 RMK A01 T00571040  RH  050%=      5-min Rain = 0
KSC1 032002Z 34008KT 06/M04 A3028 RMK A01 T00581039  RH  050%=      5-min Rain = 0
KSC1 032003Z 34008KT 06/M04 A3028 RMK A01 T00601040  RH  049%=      5-min Rain = 0
KSC1 032004Z 33009KT 06/M04 A3028 RMK A01 T00591040  RH  049%=      5-min Rain = 0
KSC1 032005Z 34006KT 06/M04 A3028 RMK A01 T00591041  RH  049%=      5-min Rain = 0
KSC1 032006Z 32006KT 06/M04 A3028 RMK A01 T00591040  RH  049%=      5-min Rain = 0
KSC1 032007Z 31006KT 06/M04 A3028 RMK A01 T00581041  RH  049%=      5-min Rain = 0
KSC1 032008Z 34006KT 06/M04 A3028 RMK A01 T00581041  RH  049%=      5-min Rain = 0
KSC1 032009Z 34004KT 06/M04 A3028 RMK A01 T00591041  RH  049%=      5-min Rain = 0
KSC1 032010Z 34004KT 06/M04 A3028 RMK A01 T00591041  RH  049%=      5-min Rain = 0
KSC1 032011Z 34005KT 06/M04 A3028 RMK A01 T00581041  RH  049%=      5-min Rain = 0
KSC1 032012Z 33007KT 06/M04 A3028 RMK A01 T00591040  RH  049%=      5-min Rain = 0
KSC1 032013Z 34008KT 06/M04 A3028 RMK A01 T00601040  RH  049%=      5-min Rain = 0
KSC1 032014Z 34008KT 06/M04 A3028 RMK A01 T00601040  RH  048%=      5-min Rain = 0
KSC1 032015Z 35006KT 06/M04 A3028 RMK A01 T00601041  RH  048%=      5-min Rain = 0
KSC1 032016Z 35005KT 06/M04 A3028 RMK A01 T00591041  RH  049%=      5-min Rain = 0
KSC1 032017Z 36008KT 06/M04 A3028 RMK A01 T00591041  RH  049%=      5-min Rain = 0
KSC1 032018Z 35009KT 06/M04 A3027 RMK A01 T00591041  RH  049%=      5-min Rain = 0
KSC1 032019Z 34007KT 06/M04 A3027 RMK A01 T00591041  RH  049%=      5-min Rain = 0
KSC1 032020Z 33006KT 06/M04 A3027 RMK A01 T00601041  RH  048%=      5-min Rain = 0
KSC1 032021Z 34008KT 06/M04 A3027 RMK A01 T00601041  RH  048%=      5-min Rain = 0
KSC1 032022Z 35008KT 06/M04 A3027 RMK A01 T00621040  RH  048%=      5-min Rain = 0
KSC1 032023Z 36008KT 06/M04 A3027 RMK A01 T00621042  RH  047%=      5-min Rain = 0
KSC1 032024Z 34008KT 06/M04 A3027 RMK A01 T00621041  RH  048%=      5-min Rain = 0
KSC1 032025Z 36007KT 06/M04 A3027 RMK A01 T00621042  RH  047%=      5-min Rain = 0
KSC1 032026Z 35007KT 06/M04 A3027 RMK A01 T00621041  RH  048%=      5-min Rain = 0
KSC1 032027Z 35008KT 06/M04 A3027 RMK A01 T00631040  RH  047%=      5-min Rain = 0
KSC1 032028Z 36005KT 06/M04 A3027 RMK A01 T00641040  RH  047%=      5-min Rain = 0
KSC1 032029Z 36005KT 07/M04 A3027 RMK A01 T00651039  RH  047%=      5-min Rain = 0
KSC1 032030Z 33004KT 07/M04 A3027 RMK A01 T00661040  RH  047%=      5-min Rain = 0
KSC1 032031Z 33006KT 07/M04 A3027 RMK A01 T00661040  RH  047%=      5-min Rain = 0
KSC1 032032Z 35007KT 07/M04 A3027 RMK A01 T00661040  RH  047%=      5-min Rain = 0
KSC1 032033Z 35007KT 07/M04 A3027 RMK A01 T00661040  RH  047%=      5-min Rain = 0
KSC1 032034Z 34007KT 07/M04 A3027 RMK A01 T00651041  RH  047%=      5-min Rain = 0
KSC1 032035Z 35007KT 06/M04 A3027 RMK A01 T00631041  RH  047%=      5-min Rain = 0
KSC1 032036Z 34006KT 06/M04 A3027 RMK A01 T00621042  RH  047%=      5-min Rain = 0
KSC1 032037Z 36005KT 06/M04 A3027 RMK A01 T00621041  RH  048%=      5-min Rain = 0
KSC1 032038Z 35004KT 06/M04 A3027 RMK A01 T00621041  RH  048%=      5-min Rain = 0
KSC1 032039Z 00004KT 06/M04 A3027 RMK A01 T00631040  RH  048%=      5-min Rain = 0
KSC1 032040Z 35006KT 07/M04 A3027 RMK A01 T00651039  RH  047%=      5-min Rain = 0
KSC1 032041Z 35009KT 07/M04 A3027 RMK A01 T00661040  RH  047%=      5-min Rain = 0
KSC1 032042Z 36010KT 07/M04 A3027 RMK A01 T00671041  RH  046%=      5-min Rain = 0
KSC1 032043Z 34008KT 06/M04 A3027 RMK A01 T00641042  RH  046%=      5-min Rain = 0
KSC1 032044Z 33006KT 06/M04 A3027 RMK A01 T00631043  RH  047%=      5-min Rain = 0
KSC1 032045Z 34007KT 06/M04 A3027 RMK A01 T00621042  RH  047%=      5-min Rain = 0
KSC1 032046Z 35005KT 06/M04 A3027 RMK A01 T00631042  RH  047%=      5-min Rain = 0
KSC1 032047Z 36004KT 06/M04 A3027 RMK A01 T00631042  RH  047%=      5-min Rain = 0
KSC1 032048Z 36005KT 06/M04 A3027 RMK A01 T00641041  RH  047%=      5-min Rain = 0
KSC1 032049Z 35006KT 06/M04 A3027 RMK A01 T00641041  RH  047%=      5-min Rain = 0
KSC1 032050Z 34005KT 06/M04 A3027 RMK A01 T00641041  RH  047%=      5-min Rain = 0
KSC1 032051Z 34006KT 06/M04 A3026 RMK A01 T00641042  RH  047%=      5-min Rain = 0
KSC1 032052Z 32005G10KT 06/M04 A3026 RMK A01 T00641043  RH  046%=      5-min Rain = 0
KSC1 032053Z 35007KT 06/M04 A3026 RMK A01 T00641042  RH  047%=      5-min Rain = 0
KSC1 032054Z 34006KT 06/M04 A3026 RMK A01 T00641042  RH  047%=      5-min Rain = 0
KSC1 032055Z 35006KT 07/M04 A3026 RMK A01 T00651042  RH  046%=      5-min Rain = 0
KSC1 032056Z 35007KT 07/M04 A3026 RMK A01 T00651042  RH  046%=      5-min Rain = 0
KSC1 032057Z 36005KT 07/M04 A3026 RMK A01 T00651043  RH  046%=      5-min Rain = 0
KSC1 032058Z 34009KT 06/M04 A3026 RMK A01 T00641042  RH  046%=      5-min Rain = 0
KSC1 032059Z 34006KT 06/M04 A3026 RMK A01 T00641042  RH  047%=      5-min Rain = 0
KSC1 032100Z 35008KT 06/M04 A3026 RMK A01 T00641042  RH  047%=      5-min Rain = 0
KSC1 032101Z 35010KT 06/M04 A3026 RMK A01 T00641042  RH  046%=      5-min Rain = 0
KSC1 032102Z 34008KT 06/M04 A3026 RMK A01 T00631043  RH  046%=      5-min Rain = 0
KSC1 032103Z 35006KT 06/M04 A3026 RMK A01 T00631043  RH  047%=      5-min Rain = 0
KSC1 032104Z 36006KT 06/M04 A3026 RMK A01 T00641042  RH  047%=      5-min Rain = 0
KSC1 032105Z 01008KT 07/M04 A3026 RMK A01 T00651042  RH  046%=      5-min Rain = 0
KSC1 032106Z 00008KT 07/M04 A3026 RMK A01 T00651043  RH  046%=      5-min Rain = 0
KSC1 032107Z 35007KT 06/M04 A3026 RMK A01 T00641043  RH  046%=      5-min Rain = 0
KSC1 032108Z 35007KT 06/M04 A3026 RMK A01 T00631043  RH  047%=      5-min Rain = 0
KSC1 032109Z 35008KT 06/M04 A3026 RMK A01 T00641043  RH  047%=      5-min Rain = 0
KSC1 032110Z 00007KT 06/M04 A3026 RMK A01 T00641043  RH  046%=      5-min Rain = 0
KSC1 032111Z 00011KT 06/M04 A3026 RMK A01 T00641042  RH  046%=      5-min Rain = 0
KSC1 032112Z 36009KT 07/M04 A3026 RMK A01 T00651042  RH  046%=      5-min Rain = 0
KSC1 032113Z 35008KT 06/M04 A3026 RMK A01 T00641042  RH  046%=      5-min Rain = 0
KSC1 032114Z 35010KT 06/M04 A3026 RMK A01 T00641043  RH  046%=      5-min Rain = 0
KSC1 032115Z 35009KT 06/M04 A3026 RMK A01 T00631043  RH  047%=      5-min Rain = 0
KSC1 032116Z 34010KT 06/M04 A3026 RMK A01 T00621043  RH  047%=      5-min Rain = 0
KSC1 032117Z 34009KT 06/M04 A3026 RMK A01 T00621042  RH  047%=      5-min Rain = 0
KSC1 032118Z 36009KT 06/M04 A3026 RMK A01 T00631042  RH  047%=      5-min Rain = 0
KSC1 032119Z 36008KT 06/M04 A3026 RMK A01 T00631043  RH  047%=      5-min Rain = 0
KSC1 032120Z 36007KT 06/M04 A3026 RMK A01 T00631042  RH  047%=      5-min Rain = 0
KSC1 032121Z 00006KT 06/M04 A3026 RMK A01 T00641042  RH  047%=      5-min Rain = 0
KSC1 032122Z 00007KT 07/M04 A3026 RMK A01 T00651041  RH  046%=      5-min Rain = 0
KSC1 032123Z 36008KT 07/M04 A3026 RMK A01 T00661042  RH  046%=      5-min Rain = 0
KSC1 032124Z 01007KT 07/M04 A3026 RMK A01 T00651042  RH  046%=      5-min Rain = 0
KSC1 032125Z 01006KT 07/M04 A3026 RMK A01 T00651042  RH  046%=      5-min Rain = 0
KSC1 032126Z 35006KT 06/M04 A3026 RMK A01 T00641043  RH  046%=      5-min Rain = 0
KSC1 032127Z 35005KT 07/M04 A3026 RMK A01 T00651042  RH  046%=      5-min Rain = 0
KSC1 032128Z 00007KT 06/M04 A3026 RMK A01 T00641042  RH  046%=      5-min Rain = 0
KSC1 032129Z 36010KT 06/M04 A3026 RMK A01 T00641043  RH  046%=      5-min Rain = 0
KSC1 032130Z 01008KT 06/M04 A3026 RMK A01 T00641043  RH  046%=      5-min Rain = 0
KSC1 032131Z 00008KT 06/M04 A3026 RMK A01 T00641044  RH  046%=      5-min Rain = 0
KSC1 032132Z 34008KT 07/M04 A3026 RMK A01 T00661044  RH  046%=      5-min Rain = 0
KSC1 032133Z 33008KT 07/M04 A3026 RMK A01 T00661044  RH  045%=      5-min Rain = 0
KSC1 032134Z 32009KT 07/M04 A3026 RMK A01 T00661044  RH  045%=      5-min Rain = 0
KSC1 032135Z 32009KT 07/M04 A3026 RMK A01 T00661044  RH  045%=      5-min Rain = 0
KSC1 032136Z 32008KT 07/M05 A3026 RMK A01 T00651045  RH  045%=      5-min Rain = 0
KSC1 032137Z 32009KT 07/M04 A3026 RMK A01 T00651044  RH  045%=      5-min Rain = 0
KSC1 032138Z 33009KT 07/M04 A3026 RMK A01 T00651044  RH  046%=      5-min Rain = 0
KSC1 032139Z 33010KT 07/M04 A3026 RMK A01 T00651044  RH  046%=      5-min Rain = 0
KSC1 032140Z 34011KT 07/M04 A3026 RMK A01 T00661044  RH  046%=      5-min Rain = 0
KSC1 032141Z 35011KT 07/M04 A3026 RMK A01 T00661044  RH  045%=      5-min Rain = 0
KSC1 032142Z 35009KT 07/M04 A3026 RMK A01 T00661044  RH  045%=      5-min Rain = 0
KSC1 032143Z 35007KT 07/M04 A3026 RMK A01 T00651044  RH  046%=      5-min Rain = 0
KSC1 032144Z 34009KT 07/M04 A3026 RMK A01 T00651044  RH  046%=      5-min Rain = 0
KSC1 032145Z 34008KT 07/M04 A3026 RMK A01 T00651044  RH  046%=      5-min Rain = 0
KSC1 032146Z 34008KT 07/M04 A3026 RMK A01 T00651044  RH  046%=      5-min Rain = 0
KSC1 032147Z 33006KT 06/M04 A3026 RMK A01 T00641044  RH  046%=      5-min Rain = 0
KSC1 032148Z 33006KT 07/M04 A3026 RMK A01 T00651044  RH  046%=      5-min Rain = 0
KSC1 032149Z 33007KT 07/M04 A3026 RMK A01 T00661044  RH  045%=      5-min Rain = 0
KSC1 032150Z 34006KT 07/M04 A3026 RMK A01 T00661044  RH  045%=      5-min Rain = 0
KSC1 032151Z 35004KT 07/M04 A3026 RMK A01 T00661044  RH  045%=      5-min Rain = 0
KSC1 032152Z 34006KT 07/M04 A3026 RMK A01 T00661044  RH  045%=      5-min Rain = 0
KSC1 032153Z 36004KT 07/M04 A3026 RMK A01 T00661044  RH  045%=      5-min Rain = 0
KSC1 032154Z 36008KT 07/M04 A3026 RMK A01 T00671043  RH  045%=      5-min Rain = 0
KSC1 032155Z 35008KT 07/M04 A3026 RMK A01 T00661043  RH  046%=      5-min Rain = 0
KSC1 032156Z 35008KT 07/M04 A3026 RMK A01 T00651044  RH  046%=      5-min Rain = 0
KSC1 032157Z 34007KT 06/M04 A3026 RMK A01 T00641044  RH  046%=      5-min Rain = 0
KSC1 032158Z 34006KT 06/M04 A3026 RMK A01 T00641043  RH  046%=      5-min Rain = 0
KSC1 032159Z 36005KT 06/M04 A3026 RMK A01 T00641044  RH  046%=      5-min Rain = 0
KSC1 032200Z 01007KT 06/M04 A3026 RMK A01 T00641043  RH  046%=      5-min Rain = 0
KSC1 032201Z 03006KT 06/M04 A3026 RMK A01 T00641043  RH  046%=      5-min Rain = 0
KSC1 032202Z 01007KT 07/M04 A3026 RMK A01 T00651043  RH  046%=      5-min Rain = 0
KSC1 032203Z 36009KT 07/M04 A3026 RMK A01 T00651044  RH  046%=      5-min Rain = 0
KSC1 032204Z 00010KT 07/M04 A3026 RMK A01 T00651044  RH  046%=      5-min Rain = 0
KSC1 032205Z 00009KT 07/M05 A3026 RMK A01 T00651045  RH  046%=      5-min Rain = 0
KSC1 032206Z 36007KT 06/M05 A3026 RMK A01 T00641045  RH  046%=      5-min Rain = 0
KSC1 032207Z 34008KT 06/M05 A3026 RMK A01 T00641045  RH  046%=      5-min Rain = 0
KSC1 032208Z 35007KT 07/M04 A3026 RMK A01 T00651044  RH  046%=      5-min Rain = 0
KSC1 032209Z 34007KT 06/M05 A3026 RMK A01 T00641045  RH  046%=      5-min Rain = 0
KSC1 032210Z 35006KT 06/M04 A3026 RMK A01 T00641044  RH  046%=      5-min Rain = 0
KSC1 032211Z 35006KT 07/M04 A3026 RMK A01 T00651044  RH  046%=      5-min Rain = 0
KSC1 032212Z 34007KT 07/M04 A3026 RMK A01 T00651044  RH  046%=      5-min Rain = 0
KSC1 032213Z 34007KT 06/M05 A3026 RMK A01 T00641045  RH  045%=      5-min Rain = 0
KSC1 032214Z 35008KT 06/M05 A3026 RMK A01 T00641045  RH  045%=      5-min Rain = 0
KSC1 032215Z 35009KT 07/M05 A3026 RMK A01 T00651045  RH  045%=      5-min Rain = 0
KSC1 032216Z 35009KT 06/M05 A3026 RMK A01 T00641045  RH  045%=      5-min Rain = 0
KSC1 032217Z 34006KT 06/M05 A3026 RMK A01 T00641045  RH  046%=      5-min Rain = 0
KSC1 032218Z 35006KT 06/M05 A3026 RMK A01 T00641045  RH  046%=      5-min Rain = 0
KSC1 032219Z 35004KT 06/M04 A3026 RMK A01 T00641044  RH  046%=      5-min Rain = 0
KSC1 032220Z 33005KT 07/M04 A3026 RMK A01 T00651044  RH  046%=      5-min Rain = 0
KSC1 032221Z 33006KT 07/M04 A3026 RMK A01 T00651044  RH  046%=      5-min Rain = 0
KSC1 032222Z 33005KT 07/M04 A3026 RMK A01 T00651044  RH  045%=      5-min Rain = 0
KSC1 032223Z 34005KT 07/M04 A3026 RMK A01 T00651044  RH  046%=      5-min Rain = 0
KSC1 032224Z 34007KT 07/M04 A3026 RMK A01 T00661044  RH  046%=      5-min Rain = 0
KSC1 032225Z 35007KT 07/M04 A3026 RMK A01 T00651044  RH  046%=      5-min Rain = 0
KSC1 032226Z 36008KT 07/M04 A3026 RMK A01 T00651044  RH  046%=      5-min Rain = 0
KSC1 032227Z 00007KT 07/M04 A3026 RMK A01 T00651044  RH  046%=      5-min Rain = 0
KSC1 032228Z 36007KT 07/M04 A3026 RMK A01 T00651044  RH  046%=      5-min Rain = 0
KSC1 032229Z 00006KT 07/M04 A3026 RMK A01 T00651044  RH  046%=      5-min Rain = 0
KSC1 032230Z 33007KT 06/M04 A3026 RMK A01 T00641044  RH  046%=      5-min Rain = 0
KSC1 032231Z 34005KT 07/M04 A3026 RMK A01 T00651043  RH  046%=      5-min Rain = 0
KSC1 032232Z 35005KT 06/M04 A3026 RMK A01 T00641044  RH  046%=      5-min Rain = 0
KSC1 032233Z 00007KT 06/M04 A3026 RMK A01 T00641044  RH  046%=      5-min Rain = 0
KSC1 032234Z 36007KT 06/M04 A3026 RMK A01 T00641044  RH  046%=      5-min Rain = 0
KSC1 032235Z 36007KT 06/M04 A3026 RMK A01 T00641044  RH  046%=      5-min Rain = 0
KSC1 032236Z 01007KT 06/M04 A3026 RMK A01 T00641043  RH  046%=      5-min Rain = 0
KSC1 032237Z 01008KT 06/M04 A3026 RMK A01 T00631044  RH  046%=      5-min Rain = 0
KSC1 032238Z 36006KT 06/M04 A3026 RMK A01 T00631044  RH  046%=      5-min Rain = 0
KSC1 032239Z 00006KT 06/M04 A3026 RMK A01 T00631043  RH  046%=      5-min Rain = 0
KSC1 032240Z 35006KT 06/M04 A3026 RMK A01 T00631043  RH  047%=      5-min Rain = 0
KSC1 032241Z 01005KT 06/M04 A3026 RMK A01 T00631043  RH  046%=      5-min Rain = 0
KSC1 032242Z 01008KT 06/M04 A3026 RMK A01 T00631043  RH  046%=      5-min Rain = 0
KSC1 032243Z 01006KT 06/M04 A3026 RMK A01 T00631044  RH  046%=      5-min Rain = 0
KSC1 032244Z 36006KT 06/M04 A3026 RMK A01 T00631043  RH  046%=      5-min Rain = 0
KSC1 032245Z 00006KT 06/M04 A3026 RMK A01 T00631043  RH  046%=      5-min Rain = 0
KSC1 032246Z 35004KT 06/M04 A3026 RMK A01 T00631044  RH  046%=      5-min Rain = 0
KSC1 032247Z 35006KT 06/M04 A3026 RMK A01 T00631043  RH  047%=      5-min Rain = 0
KSC1 032248Z 36007KT 06/M04 A3026 RMK A01 T00631043  RH  047%=      5-min Rain = 0
KSC1 032249Z 36007KT 06/M04 A3026 RMK A01 T00631044  RH  046%=      5-min Rain = 0
KSC1 032250Z 01008KT 06/M04 A3026 RMK A01 T00631044  RH  046%=      5-min Rain = 0
KSC1 032251Z 36007KT 06/M04 A3026 RMK A01 T00631043  RH  047%=      5-min Rain = 0
KSC1 032252Z 00006KT 06/M04 A3026 RMK A01 T00621044  RH  047%=      5-min Rain = 0
KSC1 032253Z 00006KT 06/M04 A3026 RMK A01 T00621044  RH  047%=      5-min Rain = 0
KSC1 032254Z 01004KT 06/M04 A3026 RMK A01 T00621044  RH  047%=      5-min Rain = 0
KSC1 032255Z 00004KT 06/M04 A3026 RMK A01 T00621044  RH  047%=      5-min Rain = 0
KSC1 032256Z 01006KT 06/M04 A3026 RMK A01 T00621044  RH  047%=      5-min Rain = 0
KSC1 032257Z 36005KT 06/M04 A3026 RMK A01 T00621044  RH  047%=      5-min Rain = 0
KSC1 032258Z 36004KT 06/M04 A3026 RMK A01 T00621044  RH  047%=      5-min Rain = 0
KSC1 032259Z 00004KT 06/M04 A3026 RMK A01 T00621044  RH  047%=      5-min Rain = 0
KSC1 032300Z 01004KT 06/M04 A3026 RMK A01 T00621044  RH  047%=      5-min Rain = 0
KSC1 032301Z 00005KT 06/M04 A3026 RMK A01 T00621044  RH  047%=      5-min Rain = 0
KSC1 032302Z 36006KT 06/M04 A3026 RMK A01 T00621044  RH  047%=      5-min Rain = 0
KSC1 032303Z 01006KT 06/M04 A3026 RMK A01 T00621044  RH  047%=      5-min Rain = 0
KSC1 032304Z 00006KT 06/M04 A3026 RMK A01 T00621044  RH  047%=      5-min Rain = 0
KSC1 032305Z 35004KT 06/M04 A3026 RMK A01 T00621044  RH  047%=      5-min Rain = 0
KSC1 032306Z 35005KT 06/M04 A3026 RMK A01 T00621044  RH  047%=      5-min Rain = 0
KSC1 032307Z 36004KT 06/M04 A3026 RMK A01 T00621044  RH  047%=      5-min Rain = 0
KSC1 032308Z 34004KT 06/M04 A3026 RMK A01 T00621044  RH  047%=      5-min Rain = 0
KSC1 032309Z 34003KT 06/M04 A3026 RMK A01 T00621044  RH  047%=      5-min Rain = 0
KSC1 032310Z 34005KT 06/M04 A3026 RMK A01 T00621044  RH  047%=      5-min Rain = 0
KSC1 032311Z 35004KT 06/M04 A3026 RMK A01 T00621044  RH  047%=      5-min Rain = 0
KSC1 032312Z 36005KT 06/M04 A3026 RMK A01 T00611044  RH  047%=      5-min Rain = 0
KSC1 032313Z 35006KT 06/M04 A3026 RMK A01 T00621044  RH  047%=      5-min Rain = 0
KSC1 032314Z 36004KT 06/M05 A3026 RMK A01 T00621045  RH  046%=      5-min Rain = 0
KSC1 032315Z 00006KT 06/M05 A3026 RMK A01 T00621045  RH  047%=      5-min Rain = 0
KSC1 032316Z 35006KT 06/M04 A3026 RMK A01 T00621044  RH  047%=      5-min Rain = 0
KSC1 032317Z 35006KT 06/M05 A3026 RMK A01 T00611045  RH  047%=      5-min Rain = 0
KSC1 032318Z 35006KT 06/M05 A3026 RMK A01 T00611045  RH  047%=      5-min Rain = 0
KSC1 032319Z 35005KT 06/M04 A3026 RMK A01 T00611044  RH  047%=      5-min Rain = 0
KSC1 032320Z 35004KT 06/M04 A3026 RMK A01 T00611044  RH  047%=      5-min Rain = 0
KSC1 032321Z 35004KT 06/M04 A3026 RMK A01 T00611044  RH  047%=      5-min Rain = 0
KSC1 032322Z 35004KT 06/M04 A3026 RMK A01 T00611044  RH  047%=      5-min Rain = 0
KSC1 032323Z 34004KT 06/M04 A3026 RMK A01 T00611044  RH  047%=      5-min Rain = 0
KSC1 032324Z 35004KT 06/M04 A3026 RMK A01 T00601044  RH  047%=      5-min Rain = 0
KSC1 032325Z 35004KT 06/M04 A3026 RMK A01 T00601044  RH  047%=      5-min Rain = 0
KSC1 032326Z 00004KT 06/M04 A3026 RMK A01 T00601044  RH  047%=      5-min Rain = 0
KSC1 032327Z 01004KT 06/M04 A3026 RMK A01 T00601044  RH  047%=      5-min Rain = 0
KSC1 032328Z 00003KT 06/M04 A3026 RMK A01 T00601044  RH  047%=      5-min Rain = 0
KSC1 032329Z 36004KT 06/M04 A3026 RMK A01 T00601044  RH  047%=      5-min Rain = 0
KSC1 032330Z 00004KT 06/M04 A3026 RMK A01 T00591044  RH  047%=      5-min Rain = 0
KSC1 032331Z 35003KT 06/M04 A3026 RMK A01 T00591044  RH  047%=      5-min Rain = 0
KSC1 032332Z 02004KT 06/M04 A3026 RMK A01 T00591044  RH  048%=      5-min Rain = 0
KSC1 032333Z 02004KT 06/M04 A3026 RMK A01 T00591044  RH  048%=      5-min Rain = 0
KSC1 032334Z 00003KT 06/M04 A3026 RMK A01 T00591044  RH  048%=      5-min Rain = 0
KSC1 032335Z 01004KT 06/M04 A3026 RMK A01 T00581044  RH  048%=      5-min Rain = 0
KSC1 032336Z 00004KT 06/M04 A3026 RMK A01 T00581044  RH  048%=      5-min Rain = 0
KSC1 032337Z 01004KT 06/M04 A3026 RMK A01 T00581044  RH  048%=      5-min Rain = 0
KSC1 032338Z 01005KT 06/M04 A3026 RMK A01 T00581044  RH  048%=      5-min Rain = 0
KSC1 032339Z 01004KT 06/M04 A3026 RMK A01 T00581044  RH  048%=      5-min Rain = 0
KSC1 032340Z 01004KT 06/M04 A3026 RMK A01 T00581044  RH  048%=      5-min Rain = 0
KSC1 032341Z 00003KT 06/M04 A3026 RMK A01 T00571044  RH  048%=      5-min Rain = 0
KSC1 032342Z 01003KT 06/M04 A3026 RMK A01 T00571044  RH  048%=      5-min Rain = 0
KSC1 032343Z 01003KT 06/M04 A3026 RMK A01 T00571044  RH  048%=      5-min Rain = 0
KSC1 032344Z 02003KT 06/M04 A3026 RMK A01 T00561044  RH  048%=      5-min Rain = 0
KSC1 032345Z 01003KT 06/M04 A3026 RMK A01 T00561044  RH  048%=      5-min Rain = 0
KSC1 032346Z 00003KT 06/M04 A3026 RMK A01 T00561044  RH  049%=      5-min Rain = 0
KSC1 032347Z 00003KT 06/M04 A3026 RMK A01 T00561044  RH  049%=      5-min Rain = 0
KSC1 032348Z 00002KT 06/M04 A3026 RMK A01 T00561044  RH  049%=      5-min Rain = 0
KSC1 032349Z 01003KT 06/M04 A3026 RMK A01 T00551044  RH  049%=      5-min Rain = 0
KSC1 032350Z 00003KT 06/M04 A3026 RMK A01 T00551044  RH  049%=      5-min Rain = 0
KSC1 032351Z 01003KT 06/M05 A3026 RMK A01 T00551045  RH  049%=      5-min Rain = 0
KSC1 032352Z 36002KT 05/M05 A3026 RMK A01 T00541045  RH  049%=      5-min Rain = 0
KSC1 032353Z 36002KT 05/M05 A3026 RMK A01 T00541045  RH  049%=      5-min Rain = 0
KSC1 032354Z 35002KT 05/M05 A3026 RMK A01 T00541045  RH  049%=      5-min Rain = 0
KSC1 032355Z 35002KT 05/M05 A3026 RMK A01 T00541045  RH  049%=      5-min Rain = 0
KSC1 032356Z 35002KT 05/M05 A3026 RMK A01 T00531045  RH  049%=      5-min Rain = 0
KSC1 032357Z 35002KT 05/M05 A3026 RMK A01 T00531045  RH  049%=      5-min Rain = 0
KSC1 032358Z 35002KT 05/M05 A3026 RMK A01 T00521045  RH  049%=      5-min Rain = 0
KSC1 032359Z 35002KT 05/M05 A3026 RMK A01 T00521045  RH  049%=      5-min Rain = 0
KSC1 040000Z 00002KT 05/M05 A3026 RMK A01 T00521045  RH  050%=      5-min Rain = 0
KSC1 040001Z 01002KT 05/M05 A3026 RMK A01 T00521045  RH  050%=      5-min Rain = 0
KSC1 040002Z 01002KT 05/M05 A3026 RMK A01 T00511045  RH  050%=      5-min Rain = 0
KSC1 040003Z 01003KT 05/M05 A3026 RMK A01 T00511046  RH  050%=      5-min Rain = 0
KSC1 040004Z 01003KT 05/M05 A3026 RMK A01 T00511045  RH  050%=      5-min Rain = 0
KSC1 040005Z 01002KT 05/M05 A3026 RMK A01 T00501046  RH  050%=      5-min Rain = 0
KSC1 040006Z 01002KT 05/M05 A3026 RMK A01 T00501046  RH  050%=      5-min Rain = 0
KSC1 040007Z 01002KT 05/M05 A3026 RMK A01 T00501046  RH  050%=      5-min Rain = 0
KSC1 040008Z 02002KT 05/M05 A3026 RMK A01 T00501046  RH  050%=      5-min Rain = 0
KSC1 040009Z 02002KT 05/M05 A3026 RMK A01 T00491046  RH  050%=      5-min Rain = 0
KSC1 040010Z 02003KT 05/M05 A3026 RMK A01 T00491046  RH  050%=      5-min Rain = 0
KSC1 040011Z 02003KT 05/M05 A3026 RMK A01 T00481046  RH  051%=      5-min Rain = 0
KSC1 040012Z 01003KT 05/M05 A3026 RMK A01 T00481046  RH  051%=      5-min Rain = 0
KSC1 040013Z 01002KT 05/M05 A3026 RMK A01 T00481046  RH  051%=      5-min Rain = 0
KSC1 040014Z 01002KT 05/M05 A3026 RMK A01 T00481046  RH  051%=      5-min Rain = 0
KSC1 040015Z 00002KT 05/M05 A3026 RMK A01 T00471047  RH  051%=      5-min Rain = 0
KSC1 040016Z 00002KT 05/M05 A3026 RMK A01 T00471047  RH  051%=      5-min Rain = 0
KSC1 040017Z 00002KT 05/M05 A3026 RMK A01 T00461047  RH  051%=      5-min Rain = 0
KSC1 040018Z 00002KT 05/M05 A3026 RMK A01 T00461047  RH  051%=      5-min Rain = 0
KSC1 040019Z 00002KT 05/M05 A3026 RMK A01 T00461046  RH  051%=      5-min Rain = 0
KSC1 040020Z 00002KT 05/M05 A3026 RMK A01 T00451047  RH  051%=      5-min Rain = 0
KSC1 040021Z 00002KT 05/M05 A3026 RMK A01 T00451047  RH  052%=      5-min Rain = 0
KSC1 040022Z 00002KT 04/M05 A3026 RMK A01 T00441047  RH  052%=      5-min Rain = 0
KSC1 040023Z 00002KT 04/M05 A3026 RMK A01 T00441047  RH  052%=      5-min Rain = 0
KSC1 040024Z 03003KT 04/M05 A3026 RMK A01 T00431047  RH  052%=      5-min Rain = 0
KSC1 040025Z 01002KT 04/M05 A3026 RMK A01 T00421049  RH  052%=      5-min Rain = 0
KSC1 040026Z 02003KT 04/M05 A3026 RMK A01 T00401049  RH  052%=      5-min Rain = 0
KSC1 040027Z 02003KT 04/M05 A3026 RMK A01 T00391048  RH  053%=      5-min Rain = 0
KSC1 040028Z 03002KT 04/M05 A3026 RMK A01 T00391048  RH  053%=      5-min Rain = 0
KSC1 040029Z 02002KT 04/M05 A3026 RMK A01 T00381049  RH  053%=      5-min Rain = 0
KSC1 040030Z 02002KT 04/M05 A3026 RMK A01 T00381049  RH  053%=      5-min Rain = 0
KSC1 040031Z 01002KT 04/M05 A3026 RMK A01 T00371049  RH  053%=      5-min Rain = 0
KSC1 040032Z 03002KT 04/M05 A3026 RMK A01 T00371048  RH  054%=      5-min Rain = 0
KSC1 040033Z 02002KT 04/M05 A3026 RMK A01 T00371048  RH  054%=      5-min Rain = 0
KSC1 040034Z 02002KT 04/M05 A3026 RMK A01 T00371049  RH  053%=      5-min Rain = 0
KSC1 040035Z 02001KT 04/M05 A3027 RMK A01 T00371048  RH  054%=      5-min Rain = 0
KSC1 040036Z 02001KT 04/M05 A3027 RMK A01 T00361048  RH  054%=      5-min Rain = 0
KSC1 040037Z 02001KT 04/M05 A3027 RMK A01 T00351049  RH  054%=      5-min Rain = 0
KSC1 040038Z 02001KT 03/M05 A3027 RMK A01 T00341049  RH  055%=      5-min Rain = 0
KSC1 040039Z 02001KT 03/M05 A3027 RMK A01 T00321050  RH  055%=      5-min Rain = 0
KSC1 040040Z 02001KT 03/M05 A3027 RMK A01 T00311050  RH  055%=      5-min Rain = 0
KSC1 040041Z 01001KT 03/M05 A3027 RMK A01 T00301051  RH  056%=      5-min Rain = 0
KSC1 040042Z 35001KT 03/M05 A3027 RMK A01 T00271052  RH  056%=      5-min Rain = 0
KSC1 040043Z 35001KT 03/M05 A3027 RMK A01 T00251053  RH  056%=      5-min Rain = 0
KSC1 040044Z 35001KT 02/M06 A3027 RMK A01 T00231055  RH  057%=      5-min Rain = 0
KSC1 040045Z 35001KT 02/M06 A3027 RMK A01 T00201055  RH  057%=      5-min Rain = 0
KSC1 040046Z 35002KT 02/M06 A3027 RMK A01 T00191055  RH  058%=      5-min Rain = 0
KSC1 040047Z 35002KT 02/M06 A3027 RMK A01 T00171057  RH  058%=      5-min Rain = 0
KSC1 040048Z 36002KT 02/M06 A3027 RMK A01 T00161055  RH  059%=      5-min Rain = 0
KSC1 040049Z 35002KT 02/M06 A3027 RMK A01 T00151056  RH  059%=      5-min Rain = 0
KSC1 040050Z 33001KT 01/M06 A3027 RMK A01 T00141056  RH  059%=      5-min Rain = 0
KSC1 040051Z 34001KT 01/M06 A3027 RMK A01 T00141056  RH  060%=      5-min Rain = 0
KSC1 040052Z 35001KT 01/M06 A3027 RMK A01 T00131055  RH  060%=      5-min Rain = 0
KSC1 040053Z 00002KT 01/M06 A3027 RMK A01 T00131056  RH  060%=      5-min Rain = 0
KSC1 040054Z 01002KT 01/M06 A3027 RMK A01 T00121060  RH  059%=      5-min Rain = 0
KSC1 040055Z 01002KT 01/M07 A3027 RMK A01 T00091065  RH  058%=      5-min Rain = 0
KSC1 040056Z 01002KT 01/M07 A3027 RMK A01 T00061067  RH  058%=      5-min Rain = 0
KSC1 040057Z 01002KT 00/M07 A3027 RMK A01 T00031069  RH  058%=      5-min Rain = 0
KSC1 040058Z 01002KT 00/M07 A3027 RMK A01 T00021066  RH  060%=      5-min Rain = 0
KSC1 040059Z 01002KT 00/M07 A3027 RMK A01 T00011066  RH  061%=      5-min Rain = 0
KSC1 040100Z 01002KT 00/07 A3027 RMK A01 T00-00-66  RH  061%=      5-min Rain = 0
KSC1 040101Z 01002KT M00/M07 A3027 RMK A01 T10021068  RH  061%=      5-min Rain = 0
KSC1 040102Z 01002KT M00/M07 A3027 RMK A01 T10031069  RH  061%=      5-min Rain = 0
KSC1 040103Z 01001KT M00/M07 A3027 RMK A01 T10041068  RH  062%=      5-min Rain = 0
KSC1 040104Z 01001KT M01/M07 A3027 RMK A01 T10051067  RH  063%=      5-min Rain = 0
KSC1 040105Z 01001KT M01/M07 A3027 RMK A01 T10061066  RH  064%=      5-min Rain = 0
KSC1 040106Z 01001KT M01/M07 A3027 RMK A01 T10061068  RH  063%=      5-min Rain = 0
KSC1 040107Z 01001KT M01/M07 A3027 RMK A01 T10071068  RH  063%=      5-min Rain = 0
KSC1 040108Z 01001KT M01/M07 A3027 RMK A01 T10081069  RH  063%=      5-min Rain = 0
KSC1 040109Z 01000KT M01/M07 A3027 RMK A01 T10091069  RH  064%=      5-min Rain = 0
KSC1 040110Z 00000KT M01/M07 A3027 RMK A01 T10101071  RH  063%=      5-min Rain = 0
KSC1 040111Z 00000KT M01/M07 A3027 RMK A01 T10111073  RH  063%=      5-min Rain = 0
KSC1 040112Z 00000KT M01/M07 A3027 RMK A01 T10121072  RH  064%=      5-min Rain = 0
KSC1 040113Z 00000KT M01/M07 A3027 RMK A01 T10121070  RH  065%=      5-min Rain = 0
KSC1 040114Z 00000KT M01/M07 A3027 RMK A01 T10131072  RH  064%=      5-min Rain = 0
KSC1 040115Z 01000KT M01/M07 A3027 RMK A01 T10141073  RH  064%=      5-min Rain = 0
KSC1 040116Z 01001KT M02/M07 A3027 RMK A01 T10151073  RH  065%=      5-min Rain = 0
KSC1 040117Z 23002KT M02/M07 A3027 RMK A01 T10161073  RH  065%=      5-min Rain = 0
KSC1 040118Z 22002KT M02/M08 A3027 RMK A01 T10171076  RH  064%=      5-min Rain = 0
KSC1 040119Z 22002KT M02/M08 A3027 RMK A01 T10181078  RH  064%=      5-min Rain = 0
KSC1 040120Z 23002KT M02/M08 A3027 RMK A01 T10191077  RH  064%=      5-min Rain = 0
KSC1 040121Z 23002KT M02/M08 A3027 RMK A01 T10201078  RH  065%=      5-min Rain = 0
KSC1 040122Z 23002KT M02/M08 A3027 RMK A01 T10211079  RH  064%=      5-min Rain = 0
KSC1 040123Z 23002KT M02/M08 A3027 RMK A01 T10221079  RH  065%=      5-min Rain = 0
KSC1 040124Z 23002KT M02/M08 A3027 RMK A01 T10231079  RH  066%=      5-min Rain = 0
KSC1 040125Z 23002KT M02/M08 A3028 RMK A01 T10231077  RH  066%=      5-min Rain = 0
KSC1 040126Z 23002KT M02/M08 A3028 RMK A01 T10231078  RH  066%=      5-min Rain = 0
KSC1 040127Z 23002KT M02/M08 A3028 RMK A01 T10241078  RH  066%=      5-min Rain = 0
KSC1 040128Z 23002KT M02/M08 A3028 RMK A01 T10241077  RH  067%=      5-min Rain = 0
KSC1 040129Z 23002KT M02/M08 A3028 RMK A01 T10231075  RH  067%=      5-min Rain = 0
KSC1 040130Z 23002KT M02/M07 A3028 RMK A01 T10231073  RH  068%=      5-min Rain = 0
KSC1 040131Z 23002KT M02/M07 A3028 RMK A01 T10221073  RH  068%=      5-min Rain = 0
KSC1 040132Z 23002KT M02/M08 A3028 RMK A01 T10221075  RH  067%=      5-min Rain = 0
KSC1 040133Z 24001KT M02/M08 A3028 RMK A01 T10221076  RH  067%=      5-min Rain = 0
KSC1 040134Z 24001KT M02/M08 A3028 RMK A01 T10231077  RH  067%=      5-min Rain = 0
KSC1 040135Z 24001KT M02/M08 A3028 RMK A01 T10231077  RH  067%=      5-min Rain = 0
KSC1 040136Z 24001KT M02/M07 A3028 RMK A01 T10231074  RH  068%=      5-min Rain = 0
KSC1 040137Z 24001KT M02/M07 A3028 RMK A01 T10231073  RH  068%=      5-min Rain = 0
KSC1 040138Z 24001KT M02/M07 A3028 RMK A01 T10231073  RH  069%=      5-min Rain = 0
KSC1 040139Z 24001KT M02/M07 A3028 RMK A01 T10231073  RH  068%=      5-min Rain = 0
KSC1 040140Z 24001KT M02/M07 A3028 RMK A01 T10231073  RH  068%=      5-min Rain = 0
KSC1 040141Z 24001KT M02/M07 A3028 RMK A01 T10231071  RH  069%=      5-min Rain = 0
KSC1 040142Z 24001KT M02/M07 A3028 RMK A01 T10221070  RH  070%=      5-min Rain = 0
KSC1 040143Z 24001KT M02/M07 A3028 RMK A01 T10221071  RH  069%=      5-min Rain = 0
KSC1 040144Z 24001KT M02/M07 A3028 RMK A01 T10231072  RH  069%=      5-min Rain = 0
KSC1 040145Z 24001KT M02/M08 A3028 RMK A01 T10241075  RH  068%=      5-min Rain = 0
KSC1 040146Z 25001KT M02/M08 A3028 RMK A01 T10241075  RH  068%=      5-min Rain = 0
KSC1 040147Z 26001KT M03/M08 A3028 RMK A01 T10251075  RH  069%=      5-min Rain = 0
KSC1 040148Z 26001KT M03/M08 A3028 RMK A01 T10261075  RH  069%=      5-min Rain = 0
KSC1 040149Z 26001KT M03/M08 A3028 RMK A01 T10271075  RH  070%=      5-min Rain = 0
KSC1 040150Z 26001KT M03/M08 A3028 RMK A01 T10281077  RH  069%=      5-min Rain = 0
KSC1 040151Z 26001KT M03/M08 A3028 RMK A01 T10291078  RH  069%=      5-min Rain = 0
KSC1 040152Z 26001KT M03/M08 A3028 RMK A01 T10301078  RH  069%=      5-min Rain = 0
KSC1 040153Z 26000KT M03/M08 A3028 RMK A01 T10311080  RH  068%=      5-min Rain = 0
KSC1 040154Z 26001KT M03/M08 A3028 RMK A01 T10311082  RH  068%=      5-min Rain = 0
KSC1 040155Z 26001KT M03/M08 A3028 RMK A01 T10321082  RH  068%=      5-min Rain = 0
KSC1 040156Z 26001KT M03/M08 A3028 RMK A01 T10331083  RH  069%=      5-min Rain = 0
KSC1 040157Z 26001KT M03/M08 A3028 RMK A01 T10341083  RH  069%=      5-min Rain = 0
KSC1 040158Z 26001KT M04/M08 A3028 RMK A01 T10351083  RH  069%=      5-min Rain = 0
KSC1 040159Z 26001KT M04/M08 A3028 RMK A01 T10351084  RH  069%=      5-min Rain = 0
KSC1 040200Z 26001KT M04/M08 A3028 RMK A01 T10351084  RH  069%=      5-min Rain = 0
KSC1 040201Z 25001KT M04/M08 A3028 RMK A01 T10361084  RH  069%=      5-min Rain = 0
KSC1 040202Z 25001KT M04/M08 A3028 RMK A01 T10361084  RH  069%=      5-min Rain = 0
KSC1 040203Z 25002KT M04/M08 A3028 RMK A01 T10371084  RH  070%=      5-min Rain = 0
KSC1 040204Z 25002KT M04/M09 A3028 RMK A01 T10371085  RH  070%=      5-min Rain = 0
KSC1 040205Z 25002KT M04/M09 A3028 RMK A01 T10381085  RH  070%=      5-min Rain = 0
KSC1 040206Z 25003KT M04/M09 A3028 RMK A01 T10391085  RH  070%=      5-min Rain = 0
KSC1 040207Z 25003KT M04/M09 A3028 RMK A01 T10391086  RH  070%=      5-min Rain = 0
KSC1 040208Z 25003KT M04/M09 A3028 RMK A01 T10401088  RH  069%=      5-min Rain = 0
KSC1 040209Z 25003KT M04/M09 A3028 RMK A01 T10401088  RH  069%=      5-min Rain = 0
KSC1 040210Z 25003KT M04/M09 A3028 RMK A01 T10411088  RH  069%=      5-min Rain = 0
KSC1 040211Z 24003KT M04/M09 A3028 RMK A01 T10411089  RH  069%=      5-min Rain = 0
KSC1 040212Z 24003KT M04/M09 A3028 RMK A01 T10421091  RH  069%=      5-min Rain = 0
KSC1 040213Z 24003KT M04/M09 A3028 RMK A01 T10431091  RH  069%=      5-min Rain = 0
KSC1 040214Z 24003KT M04/M09 A3028 RMK A01 T10431091  RH  069%=      5-min Rain = 0
KSC1 040215Z 24003KT M04/M09 A3028 RMK A01 T10431090  RH  070%=      5-min Rain = 0
KSC1 040216Z 24003KT M04/M09 A3028 RMK A01 T10441091  RH  070%=      5-min Rain = 0
KSC1 040217Z 24003KT M04/M09 A3028 RMK A01 T10441091  RH  070%=      5-min Rain = 0
KSC1 040218Z 24003KT M04/M09 A3028 RMK A01 T10441089  RH  071%=      5-min Rain = 0
KSC1 040219Z 24003KT M04/M09 A3028 RMK A01 T10441089  RH  071%=      5-min Rain = 0
KSC1 040220Z 23004KT M04/M09 A3028 RMK A01 T10441089  RH  071%=      5-min Rain = 0
KSC1 040221Z 23004KT M04/M09 A3028 RMK A01 T10431088  RH  071%=      5-min Rain = 0
KSC1 040222Z 23004KT M04/M09 A3028 RMK A01 T10431088  RH  071%=      5-min Rain = 0
KSC1 040223Z 23004KT M04/M09 A3028 RMK A01 T10431089  RH  070%=      5-min Rain = 0
KSC1 040224Z 23004KT M04/M09 A3028 RMK A01 T10441089  RH  070%=      5-min Rain = 0
KSC1 040225Z 23004KT M04/M09 A3028 RMK A01 T10441089  RH  071%=      5-min Rain = 0
KSC1 040226Z 23004KT M04/M09 A3028 RMK A01 T10441089  RH  071%=      5-min Rain = 0
KSC1 040227Z 23004KT M04/M09 A3028 RMK A01 T10441089  RH  071%=      5-min Rain = 0
KSC1 040228Z 23004KT M04/M09 A3028 RMK A01 T10441089  RH  071%=      5-min Rain = 0
KSC1 040229Z 23004KT M04/M09 A3028 RMK A01 T10441088  RH  071%=      5-min Rain = 0
KSC1 040230Z 24004KT M04/M09 A3028 RMK A01 T10441088  RH  071%=      5-min Rain = 0
KSC1 040231Z 24003KT M04/M09 A3028 RMK A01 T10441087  RH  072%=      5-min Rain = 0
KSC1 040232Z 24004KT M04/M09 A3028 RMK A01 T10431086  RH  072%=      5-min Rain = 0
KSC1 040233Z 24004KT M04/M09 A3028 RMK A01 T10431087  RH  072%=      5-min Rain = 0
KSC1 040234Z 24004KT M04/M09 A3028 RMK A01 T10431087  RH  072%=      5-min Rain = 0
KSC1 040235Z 24004KT M04/M09 A3028 RMK A01 T10431087  RH  072%=      5-min Rain = 0
KSC1 040236Z 24004KT M04/M09 A3028 RMK A01 T10431087  RH  072%=      5-min Rain = 0
KSC1 040237Z 24004KT M04/M09 A3028 RMK A01 T10431087  RH  072%=      5-min Rain = 0
KSC1 040238Z 24004KT M04/M09 A3028 RMK A01 T10431086  RH  072%=      5-min Rain = 0
KSC1 040239Z 24004KT M04/M09 A3028 RMK A01 T10431087  RH  072%=      5-min Rain = 0
KSC1 040240Z 24004KT M04/M09 A3029 RMK A01 T10441087  RH  072%=      5-min Rain = 0
KSC1 040241Z 24004KT M04/M09 A3029 RMK A01 T10441087  RH  072%=      5-min Rain = 0
KSC1 040242Z 25004KT M04/M08 A3029 RMK A01 T10431084  RH  073%=      5-min Rain = 0
KSC1 040243Z 25005KT M04/M08 A3029 RMK A01 T10411081  RH  074%=      5-min Rain = 0
KSC1 040244Z 25005KT M04/M08 A3029 RMK A01 T10401079  RH  074%=      5-min Rain = 0
KSC1 040245Z 24005KT M04/M08 A3029 RMK A01 T10381076  RH  075%=      5-min Rain = 0
KSC1 040246Z 24005KT M04/M08 A3029 RMK A01 T10361075  RH  075%=      5-min Rain = 0
KSC1 040247Z 24005KT M04/M08 A3029 RMK A01 T10361077  RH  073%=      5-min Rain = 0
KSC1 040248Z 24005KT M04/M08 A3029 RMK A01 T10351075  RH  073%=      5-min Rain = 0
KSC1 040249Z 24005KT M04/M08 A3029 RMK A01 T10351075  RH  073%=      5-min Rain = 0
KSC1 040250Z 24005KT M03/M07 A3029 RMK A01 T10331073  RH  074%=      5-min Rain = 0
KSC1 040251Z 24005KT M03/M07 A3029 RMK A01 T10311069  RH  075%=      5-min Rain = 0
KSC1 040252Z 24005KT M03/M06 A3029 RMK A01 T10271063  RH  076%=      5-min Rain = 0
KSC1 040253Z 24005KT M02/M06 A3029 RMK A01 T10231059  RH  076%=      5-min Rain = 0
KSC1 040254Z 24004KT M02/M06 A3029 RMK A01 T10211060  RH  074%=      5-min Rain = 0
KSC1 040255Z 24004KT M02/M06 A3029 RMK A01 T10211062  RH  073%=      5-min Rain = 0
KSC1 040256Z 24004KT M02/M06 A3029 RMK A01 T10201061  RH  073%=      5-min Rain = 0
KSC1 040257Z 24004KT M02/M06 A3029 RMK A01 T10181060  RH  073%=      5-min Rain = 0
KSC1 040258Z 24004KT M02/M06 A3029 RMK A01 T10181060  RH  073%=      5-min Rain = 0
KSC1 040259Z 23004KT M02/M06 A3029 RMK A01 T10181061  RH  072%=      5-min Rain = 0
KSC1 040300Z 23004KT M02/M06 A3029 RMK A01 T10181062  RH  072%=      5-min Rain = 0
KSC1 040301Z 24004KT M02/M06 A3029 RMK A01 T10181061  RH  072%=      5-min Rain = 0
KSC1 040302Z 24004KT M02/M06 A3029 RMK A01 T10191062  RH  072%=      5-min Rain = 0
KSC1 040303Z 24004KT M02/M06 A3029 RMK A01 T10191062  RH  072%=      5-min Rain = 0
KSC1 040304Z 24004KT M02/M06 A3029 RMK A01 T10191062  RH  072%=      5-min Rain = 0
KSC1 040305Z 24004KT M02/M06 A3029 RMK A01 T10191062  RH  073%=      5-min Rain = 0
KSC1 040306Z 24004KT M02/M06 A3029 RMK A01 T10181061  RH  073%=      5-min Rain = 0
KSC1 040307Z 23004KT M02/M06 A3029 RMK A01 T10181061  RH  073%=      5-min Rain = 0
KSC1 040308Z 23004KT M02/M06 A3029 RMK A01 T10181062  RH  072%=      5-min Rain = 0
KSC1 040309Z 23004KT M02/M06 A3029 RMK A01 T10191062  RH  072%=      5-min Rain = 0
KSC1 040310Z 23004KT M02/M06 A3029 RMK A01 T10201063  RH  072%=      5-min Rain = 0
KSC1 040311Z 23004KT M02/M07 A3029 RMK A01 T10211065  RH  072%=      5-min Rain = 0
KSC1 040312Z 23004KT M02/M07 A303 RMK A01 T10231068  RH  071%=      5-min Rain = 0
KSC1 040313Z 23004KT M03/M07 A303 RMK A01 T10251071  RH  071%=      5-min Rain = 0
KSC1 040314Z 23004KT M03/M07 A303 RMK A01 T10271072  RH  071%=      5-min Rain = 0
KSC1 040315Z 23003KT M03/M07 A303 RMK A01 T10291073  RH  071%=      5-min Rain = 0
KSC1 040316Z 23003KT M03/M08 A3029 RMK A01 T10301075  RH  071%=      5-min Rain = 0
KSC1 040317Z 23003KT M03/M08 A303 RMK A01 T10321076  RH  071%=      5-min Rain = 0
KSC1 040318Z 23003KT M03/M08 A303 RMK A01 T10341077  RH  072%=      5-min Rain = 0
KSC1 040319Z 23003KT M04/M08 A303 RMK A01 T10351078  RH  072%=      5-min Rain = 0
KSC1 040320Z 23002KT M04/M08 A303 RMK A01 T10361079  RH  072%=      5-min Rain = 0
KSC1 040321Z 23002KT M04/M08 A303 RMK A01 T10371079  RH  072%=      5-min Rain = 0
KSC1 040322Z 23002KT M04/M08 A303 RMK A01 T10371079  RH  073%=      5-min Rain = 0
KSC1 040323Z 23002KT M04/M08 A303 RMK A01 T10381079  RH  073%=      5-min Rain = 0
KSC1 040324Z 23001KT M04/M08 A303 RMK A01 T10391080  RH  073%=      5-min Rain = 0
KSC1 040325Z 23001KT M04/M08 A303 RMK A01 T10401081  RH  073%=      5-min Rain = 0
KSC1 040326Z 23001KT M04/M08 A303 RMK A01 T10411082  RH  073%=      5-min Rain = 0
KSC1 040327Z 23001KT M04/M09 A303 RMK A01 T10421085  RH  072%=      5-min Rain = 0
KSC1 040328Z 23001KT M04/M09 A303 RMK A01 T10441088  RH  071%=      5-min Rain = 0
KSC1 040329Z 23000KT M05/M09 A303 RMK A01 T10451090  RH  071%=      5-min Rain = 0
KSC1 040330Z 00000KT M05/M09 A303 RMK A01 T10461090  RH  071%=      5-min Rain = 0
KSC1 040331Z 00000KT M05/M09 A303 RMK A01 T10461091  RH  071%=      5-min Rain = 0
KSC1 040332Z 34001KT M05/M09 A303 RMK A01 T10471091  RH  071%=      5-min Rain = 0
KSC1 040333Z 36004KT M05/M09 A303 RMK A01 T10481090  RH  073%=      5-min Rain = 0
KSC1 040334Z 00008KT M05/M09 A303 RMK A01 T10491089  RH  073%=      5-min Rain = 0
KSC1 040335Z 36008KT M05/M09 A303 RMK A01 T10491085  RH  076%=      5-min Rain = 0
KSC1 040336Z 35006KT M05/M08 A303 RMK A01 T10461080  RH  077%=      5-min Rain = 0
KSC1 040337Z 34005KT M04/M08 A303 RMK A01 T10441077  RH  078%=      5-min Rain = 0
KSC1 040338Z 34005KT M04/M08 A303 RMK A01 T10421076  RH  077%=      5-min Rain = 0
KSC1 040339Z 34004KT M04/M08 A303 RMK A01 T10421077  RH  076%=      5-min Rain = 0
KSC1 040340Z 33004KT M04/M08 A303 RMK A01 T10411077  RH  076%=      5-min Rain = 0
KSC1 040341Z 33003KT M04/M08 A303 RMK A01 T10401077  RH  076%=      5-min Rain = 0
KSC1 040342Z 33003KT M04/M08 A303 RMK A01 T10401077  RH  075%=      5-min Rain = 0
KSC1 040343Z 33003KT M04/M08 A303 RMK A01 T10391078  RH  075%=      5-min Rain = 0
KSC1 040344Z 32003KT M04/M08 A303 RMK A01 T10391078  RH  074%=      5-min Rain = 0
KSC1 040345Z 32003KT M04/M08 A303 RMK A01 T10401079  RH  074%=      5-min Rain = 0
KSC1 040346Z 32004KT M04/M08 A303 RMK A01 T10401079  RH  074%=      5-min Rain = 0
KSC1 040347Z 32004KT M04/M08 A303 RMK A01 T10411080  RH  074%=      5-min Rain = 0
KSC1 040348Z 31004KT M04/M08 A303 RMK A01 T10411081  RH  074%=      5-min Rain = 0
KSC1 040349Z 31004KT M04/M08 A303 RMK A01 T10421081  RH  074%=      5-min Rain = 0
KSC1 040350Z 31004KT M04/M08 A303 RMK A01 T10421082  RH  074%=      5-min Rain = 0
KSC1 040351Z 31003KT M04/M08 A303 RMK A01 T10441084  RH  074%=      5-min Rain = 0
KSC1 040352Z 31003KT M04/M08 A303 RMK A01 T10441084  RH  074%=      5-min Rain = 0
KSC1 040353Z 29001KT M04/M08 A303 RMK A01 T10441083  RH  074%=      5-min Rain = 0
KSC1 040354Z 00000KT M04/M08 A303 RMK A01 T10441083  RH  075%=      5-min Rain = 0
KSC1 040355Z 23001KT M05/M08 A303 RMK A01 T10461084  RH  075%=      5-min Rain = 0
KSC1 040356Z 23001KT M05/M08 A303 RMK A01 T10461082  RH  076%=      5-min Rain = 0
KSC1 040357Z 24001KT M05/M08 A303 RMK A01 T10451081  RH  076%=      5-min Rain = 0
KSC1 040358Z 25001KT M05/M08 A303 RMK A01 T10461082  RH  076%=      5-min Rain = 0
KSC1 040359Z 29001KT M05/M08 A3031 RMK A01 T10461081  RH  076%=      5-min Rain = 0
KSC1 040400Z 29001KT M05/M08 A3031 RMK A01 T10461081  RH  076%=      5-min Rain = 0
KSC1 040401Z 30001KT M05/M08 A3031 RMK A01 T10471083  RH  076%=      5-min Rain = 0
KSC1 040402Z 30001KT M05/M09 A3031 RMK A01 T10481085  RH  075%=      5-min Rain = 0
KSC1 040403Z 31001KT M05/M09 A3031 RMK A01 T10481086  RH  075%=      5-min Rain = 0
KSC1 040404Z 29001KT M05/M09 A3031 RMK A01 T10491087  RH  075%=      5-min Rain = 0
KSC1 040405Z 28001KT M05/M09 A3031 RMK A01 T10501087  RH  076%=      5-min Rain = 0
KSC1 040406Z 26002KT M05/M09 A3031 RMK A01 T10501085  RH  077%=      5-min Rain = 0
KSC1 040407Z 28001KT M05/M08 A3031 RMK A01 T10501083  RH  078%=      5-min Rain = 0
KSC1 040408Z 30002KT M05/M08 A3031 RMK A01 T10501083  RH  078%=      5-min Rain = 0
KSC1 040409Z 30002KT M05/M08 A3031 RMK A01 T10511084  RH  077%=      5-min Rain = 0
KSC1 040410Z 28002KT M05/M08 A3031 RMK A01 T10501083  RH  078%=      5-min Rain = 0
KSC1 040411Z 28001KT M05/M08 A3031 RMK A01 T10501084  RH  077%=      5-min Rain = 0
KSC1 040412Z 28001KT M05/M09 A3031 RMK A01 T10521087  RH  076%=      5-min Rain = 0
KSC1 040413Z 28001KT M05/M09 A3031 RMK A01 T10531090  RH  075%=      5-min Rain = 0
KSC1 040414Z 28000KT M05/M09 A3031 RMK A01 T10541091  RH  075%=      5-min Rain = 0
KSC1 040415Z 22000KT M06/M09 A3031 RMK A01 T10551091  RH  076%=      5-min Rain = 0
KSC1 040416Z 22001KT M06/M09 A3031 RMK A01 T10561092  RH  076%=      5-min Rain = 0
KSC1 040417Z 22001KT M06/M09 A3031 RMK A01 T10571093  RH  076%=      5-min Rain = 0
KSC1 040418Z 21001KT M06/M09 A3031 RMK A01 T10571091  RH  077%=      5-min Rain = 0
KSC1 040419Z 20001KT M06/M09 A3031 RMK A01 T10571091  RH  077%=      5-min Rain = 0
KSC1 040420Z 19002KT M06/M09 A3031 RMK A01 T10571090  RH  078%=      5-min Rain = 0
KSC1 040421Z 19002KT M06/M09 A3031 RMK A01 T10571089  RH  078%=      5-min Rain = 0
KSC1 040422Z 19002KT M06/M09 A3031 RMK A01 T10571088  RH  079%=      5-min Rain = 0
KSC1 040423Z 19002KT M06/M09 A3031 RMK A01 T10561086  RH  080%=      5-min Rain = 0
KSC1 040424Z 19002KT M06/M08 A3031 RMK A01 T10551084  RH  080%=      5-min Rain = 0
KSC1 040425Z 19003KT M05/M08 A3031 RMK A01 T10541083  RH  081%=      5-min Rain = 0
KSC1 040426Z 19003KT M05/M08 A3031 RMK A01 T10531083  RH  080%=      5-min Rain = 0
KSC1 040427Z 19003KT M05/M09 A3031 RMK A01 T10541085  RH  078%=      5-min Rain = 0
KSC1 040428Z 19003KT M05/M09 A3031 RMK A01 T10541087  RH  078%=      5-min Rain = 0
KSC1 040429Z 19003KT M05/M09 A3031 RMK A01 T10541087  RH  077%=      5-min Rain = 0
KSC1 040430Z 19004KT M06/M09 A3031 RMK A01 T10551090  RH  077%=      5-min Rain = 0
KSC1 040431Z 18004KT M06/M09 A3031 RMK A01 T10561092  RH  076%=      5-min Rain = 0
KSC1 040432Z 18004KT M06/M09 A3031 RMK A01 T10571091  RH  077%=      5-min Rain = 0
KSC1 040433Z 18004KT M06/M09 A3031 RMK A01 T10551087  RH  079%=      5-min Rain = 0
KSC1 040434Z 18004KT M05/M08 A3031 RMK A01 T10531082  RH  080%=      5-min Rain = 0
KSC1 040435Z 18004KT M05/M08 A3031 RMK A01 T10511079  RH  080%=      5-min Rain = 0
KSC1 040436Z 19004KT M05/M08 A3031 RMK A01 T10481077  RH  080%=      5-min Rain = 0
KSC1 040437Z 18004KT M05/M08 A3031 RMK A01 T10461076  RH  080%=      5-min Rain = 0
KSC1 040438Z 18004KT M05/M08 A3031 RMK A01 T10451075  RH  079%=      5-min Rain = 0
KSC1 040439Z 18003KT M04/M08 A3031 RMK A01 T10441076  RH  078%=      5-min Rain = 0
KSC1 040440Z 19003KT M04/M08 A3031 RMK A01 T10441076  RH  078%=      5-min Rain = 0
KSC1 040441Z 19003KT M04/M08 A3031 RMK A01 T10431075  RH  078%=      5-min Rain = 0
KSC1 040442Z 20003KT M04/M08 A3031 RMK A01 T10431076  RH  078%=      5-min Rain = 0
KSC1 040443Z 20003KT M04/M08 A3031 RMK A01 T10431078  RH  077%=      5-min Rain = 0
KSC1 040444Z 21003KT M04/M08 A3031 RMK A01 T10441078  RH  077%=      5-min Rain = 0
KSC1 040445Z 21002KT M04/M08 A3031 RMK A01 T10441078  RH  077%=      5-min Rain = 0
KSC1 040446Z 22003KT M05/M08 A3031 RMK A01 T10451080  RH  076%=      5-min Rain = 0
KSC1 040447Z 23003KT M05/M08 A3031 RMK A01 T10461082  RH  076%=      5-min Rain = 0
KSC1 040448Z 23003KT M05/M08 A3031 RMK A01 T10471083  RH  076%=      5-min Rain = 0
KSC1 040449Z 24003KT M05/M08 A3031 RMK A01 T10491084  RH  076%=      5-min Rain = 0
KSC1 040450Z 24003KT M05/M08 A3031 RMK A01 T10501083  RH  077%=      5-min Rain = 0
KSC1 040451Z 24003KT M05/M08 A3031 RMK A01 T10511084  RH  077%=      5-min Rain = 0
KSC1 040452Z 23004KT M05/M09 A3031 RMK A01 T10521086  RH  077%=      5-min Rain = 0
KSC1 040453Z 23004KT M05/M09 A3031 RMK A01 T10531089  RH  076%=      5-min Rain = 0
KSC1 040454Z 23004KT M05/M09 A3031 RMK A01 T10541091  RH  076%=      5-min Rain = 0
KSC1 040455Z 23004KT M06/M09 A3031 RMK A01 T10561092  RH  076%=      5-min Rain = 0
KSC1 040456Z 24004KT M06/M09 A3031 RMK A01 T10561093  RH  076%=      5-min Rain = 0
KSC1 040457Z 24004KT M06/M09 A3031 RMK A01 T10571092  RH  076%=      5-min Rain = 0
KSC1 040458Z 24004KT M06/M09 A3031 RMK A01 T10571091  RH  077%=      5-min Rain = 0
KSC1 040459Z 25004KT M06/M09 A3031 RMK A01 T10561089  RH  078%=      5-min Rain = 0
KSC1 040500Z 26004KT M06/M09 A3031 RMK A01 T10551087  RH  079%=      5-min Rain = 0
KSC1 040501Z 25004KT M06/M09 A3031 RMK A01 T10551086  RH  078%=      5-min Rain = 0
KSC1 040502Z 25004KT M05/M09 A3031 RMK A01 T10541087  RH  078%=      5-min Rain = 0
KSC1 040503Z 25003KT M06/M09 A3031 RMK A01 T10551088  RH  077%=      5-min Rain = 0
KSC1 040504Z 25003KT M06/M09 A3031 RMK A01 T10561091  RH  076%=      5-min Rain = 0
KSC1 040505Z 24003KT M06/M09 A3031 RMK A01 T10571092  RH  076%=      5-min Rain = 0
KSC1 040506Z 25004KT M06/M09 A3031 RMK A01 T10571090  RH  077%=      5-min Rain = 0
KSC1 040507Z 25004KT M06/M09 A3031 RMK A01 T10571089  RH  078%=      5-min Rain = 0
KSC1 040508Z 25004KT M06/M09 A3031 RMK A01 T10571088  RH  078%=      5-min Rain = 0
KSC1 040509Z 25004KT M06/M09 A3031 RMK A01 T10561087  RH  079%=      5-min Rain = 0
KSC1 040510Z 24004KT M06/M09 A3031 RMK A01 T10561087  RH  079%=      5-min Rain = 0
KSC1 040511Z 24004KT M06/M09 A3031 RMK A01 T10561087  RH  079%=      5-min Rain = 0
KSC1 040512Z 24004KT M06/M09 A3031 RMK A01 T10561088  RH  078%=      5-min Rain = 0
KSC1 040513Z 24004KT M06/M09 A3031 RMK A01 T10571091  RH  077%=      5-min Rain = 0
KSC1 040514Z 24004KT M06/M09 A3031 RMK A01 T10581092  RH  077%=      5-min Rain = 0
KSC1 040515Z 24005KT M06/M09 A3031 RMK A01 T10581093  RH  077%=      5-min Rain = 0
KSC1 040516Z 24005KT M06/M09 A3031 RMK A01 T10591091  RH  078%=      5-min Rain = 0
KSC1 040517Z 24004KT M06/M09 A3031 RMK A01 T10581089  RH  079%=      5-min Rain = 0
KSC1 040518Z 25004KT M06/M09 A3031 RMK A01 T10571087  RH  080%=      5-min Rain = 0
KSC1 040519Z 25004KT M06/M09 A3031 RMK A01 T10571086  RH  080%=      5-min Rain = 0
KSC1 040520Z 25005KT M06/M08 A3031 RMK A01 T10551082  RH  081%=      5-min Rain = 0
KSC1 040521Z 25005KT M05/M08 A3031 RMK A01 T10531079  RH  082%=      5-min Rain = 0
KSC1 040522Z 25005KT M05/M08 A3031 RMK A01 T10511079  RH  081%=      5-min Rain = 0
KSC1 040523Z 24004KT M05/M08 A3031 RMK A01 T10511080  RH  080%=      5-min Rain = 0
KSC1 040524Z 24004KT M05/M08 A3031 RMK A01 T10511080  RH  080%=      5-min Rain = 0
KSC1 040525Z 24003KT M05/M08 A3031 RMK A01 T10501080  RH  080%=      5-min Rain = 0
KSC1 040526Z 24003KT M05/M08 A3031 RMK A01 T10511081  RH  079%=      5-min Rain = 0
KSC1 040527Z 24003KT M05/M08 A3031 RMK A01 T10511083  RH  079%=      5-min Rain = 0
KSC1 040528Z 24002KT M05/M08 A3031 RMK A01 T10521084  RH  078%=      5-min Rain = 0
KSC1 040529Z 24002KT M05/M09 A3031 RMK A01 T10531085  RH  078%=      5-min Rain = 0
KSC1 040530Z 24003KT M05/M09 A3031 RMK A01 T10541086  RH  078%=      5-min Rain = 0
KSC1 040531Z 24002KT M06/M09 A3031 RMK A01 T10551085  RH  079%=      5-min Rain = 0
KSC1 040532Z 24003KT M06/M09 A3031 RMK A01 T10551085  RH  080%=      5-min Rain = 0
KSC1 040533Z 24003KT M06/M09 A3031 RMK A01 T10561086  RH  079%=      5-min Rain = 0
KSC1 040534Z 24003KT M06/M09 A3031 RMK A01 T10561086  RH  080%=      5-min Rain = 0
KSC1 040535Z 24003KT M06/M08 A3031 RMK A01 T10561084  RH  081%=      5-min Rain = 0
KSC1 040536Z 24003KT M06/M08 A3031 RMK A01 T10561083  RH  081%=      5-min Rain = 0
KSC1 040537Z 24003KT M06/M08 A3031 RMK A01 T10561084  RH  081%=      5-min Rain = 0
KSC1 040538Z 24002KT M06/M09 A3031 RMK A01 T10571086  RH  080%=      5-min Rain = 0
KSC1 040539Z 24002KT M06/M09 A3031 RMK A01 T10581087  RH  080%=      5-min Rain = 0
KSC1 040540Z 24003KT M06/M09 A3031 RMK A01 T10581087  RH  080%=      5-min Rain = 0
KSC1 040541Z 24003KT M06/M09 A3031 RMK A01 T10591086  RH  081%=      5-min Rain = 0
KSC1 040542Z 24003KT M06/M09 A3031 RMK A01 T10591085  RH  082%=      5-min Rain = 0
KSC1 040543Z 24003KT M06/M08 A3031 RMK A01 T10591084  RH  082%=      5-min Rain = 0
KSC1 040544Z 23003KT M06/M09 A3031 RMK A01 T10591085  RH  082%=      5-min Rain = 0
KSC1 040545Z 23003KT M06/M09 A3031 RMK A01 T10591086  RH  082%=      5-min Rain = 0
KSC1 040546Z 23003KT M06/M09 A3031 RMK A01 T10601087  RH  081%=      5-min Rain = 0
KSC1 040547Z 23002KT M06/M09 A3031 RMK A01 T10611089  RH  081%=      5-min Rain = 0
KSC1 040548Z 23002KT M06/M09 A3031 RMK A01 T10621091  RH  080%=      5-min Rain = 0
KSC1 040549Z 23002KT M06/M09 A3031 RMK A01 T10631092  RH  080%=      5-min Rain = 0
KSC1 040550Z 23002KT M06/M09 A3031 RMK A01 T10631092  RH  080%=      5-min Rain = 0
KSC1 040551Z 23002KT M06/M09 A3031 RMK A01 T10631092  RH  080%=      5-min Rain = 0
KSC1 040552Z 23002KT M06/M09 A303 RMK A01 T10631090  RH  081%=      5-min Rain = 0
KSC1 040553Z 23002KT M06/M09 A303 RMK A01 T10631089  RH  082%=      5-min Rain = 0
KSC1 040554Z 23002KT M06/M09 A303 RMK A01 T10631088  RH  083%=      5-min Rain = 0
KSC1 040555Z 23002KT M06/M09 A303 RMK A01 T10631088  RH  082%=      5-min Rain = 0
KSC1 040556Z 23002KT M06/M09 A303 RMK A01 T10631088  RH  082%=      5-min Rain = 0
KSC1 040557Z 23002KT M06/M09 A303 RMK A01 T10631088  RH  083%=      5-min Rain = 0
KSC1 040558Z 23002KT M06/M09 A303 RMK A01 T10631089  RH  082%=      5-min Rain = 0
KSC1 040559Z 23003KT M06/M09 A303 RMK A01 T10631089  RH  082%=      5-min Rain = 0

Page generated in 0.2051 seconds.